AFR470 LFPG-FIMP

Flight info

Callsign AFR470
Flight time 11h 9m
Altitude 31000
Route ERIXU DCT ETAMO DCT ADEKA DCT MOKDI DCT MEN DCT BADAM DCT KANIG DCT KENAS DCT POS DCT LULAK DCT MJV N859 MOGIL UB31 ZEM/N0497F320 UM989 BSA/N0494F330 UR985 RIMEL UA605 DJA UB730 DIR UM731 FL UT325 GAKEN/N0496F350 UT325 POGBA/N0503F340 UT325 KIMKO/N0496F360 UT325 SIPKI/N0500F350 UW325 NN UA401 DV UG661 DARAS/N0493F370 UG661 ANVOR DCT TIBAG
Aircraft B77W/H-SDE1E2E3FGHIJ2J3J4J5M1RWXY/LB1D1

Departure

Time 2026-05-08 09:42
Airport Charles de Gaulle International Airport (LFPG)

Arrival

Time 2026-05-08 20:51
Airport Sir Seewoosagur Ramgoolam International Airport (FIMP)
Time Latitude Longitude Altitude Speed Heading
2026-05-08 09:16 49.00219 2.58618 365 ft 0 kts 264°
2026-05-08 09:31 49.00220 2.58629 365 ft 2 kts 263°
2026-05-08 09:31 49.00222 2.58654 363 ft 2 kts 264°
2026-05-08 09:32 49.00223 2.58679 359 ft 2 kts 264°
2026-05-08 09:32 49.00225 2.58703 361 ft 2 kts 264°
2026-05-08 09:32 49.00227 2.58728 359 ft 2 kts 247°
2026-05-08 09:32 49.00238 2.58747 366 ft 2 kts 201°
2026-05-08 09:33 49.00254 2.58752 364 ft 2 kts 173°
2026-05-08 09:33 49.00264 2.58751 364 ft 0 kts 175°
2026-05-08 09:34 49.00260 2.58751 364 ft 3 kts 175°
2026-05-08 09:35 49.00218 2.58757 367 ft 9 kts 175°
2026-05-08 09:35 49.00148 2.58765 359 ft 11 kts 175°
2026-05-08 09:35 49.00070 2.58770 365 ft 11 kts 185°
2026-05-08 09:35 48.99994 2.58743 365 ft 11 kts 195°
2026-05-08 09:36 48.99938 2.58666 368 ft 11 kts 253°
2026-05-08 09:36 48.99933 2.58546 359 ft 11 kts 266°
2026-05-08 09:36 48.99928 2.58426 364 ft 11 kts 266°
2026-05-08 09:36 48.99921 2.58307 362 ft 11 kts 265°
2026-05-08 09:37 48.99915 2.58187 366 ft 11 kts 265°
2026-05-08 09:37 48.99909 2.58067 360 ft 11 kts 265°
2026-05-08 09:37 48.99902 2.57947 365 ft 11 kts 265°
2026-05-08 09:37 48.99895 2.57821 359 ft 13 kts 264°
2026-05-08 09:38 48.99886 2.57658 366 ft 18 kts 265°
2026-05-08 09:38 48.99877 2.57461 364 ft 19 kts 265°
2026-05-08 09:38 48.99866 2.57265 361 ft 19 kts 265°
2026-05-08 09:38 48.99856 2.57066 364 ft 19 kts 265°
2026-05-08 09:39 48.99845 2.56867 365 ft 19 kts 265°
2026-05-08 09:39 48.99834 2.56668 359 ft 19 kts 264°
2026-05-08 09:39 48.99824 2.56468 359 ft 19 kts 266°
2026-05-08 09:39 48.99814 2.56269 366 ft 19 kts 265°
2026-05-08 09:40 48.99802 2.56071 365 ft 19 kts 265°
2026-05-08 09:40 48.99787 2.55883 363 ft 17 kts 246°
2026-05-08 09:40 48.99686 2.55813 361 ft 17 kts 169°
2026-05-08 09:40 48.99606 2.55903 363 ft 16 kts 97°
2026-05-08 09:41 48.99618 2.56185 362 ft 48 kts 86°
2026-05-08 09:41 48.99663 2.57037 361 ft 112 kts 85°
2026-05-08 09:41 48.99742 2.58509 359 ft 165 kts 84°
2026-05-08 09:41 48.99853 2.60463 417 ft 198 kts 84°
2026-05-08 09:42 48.99971 2.62590 766 ft 208 kts 85°
2026-05-08 09:42 49.00086 2.64836 1156 ft 217 kts 85°
2026-05-08 09:42 49.00206 2.67159 1676 ft 223 kts 85°
2026-05-08 09:42 49.00330 2.69534 2123 ft 231 kts 85°
2026-05-08 09:43 49.00459 2.72043 2342 ft 248 kts 85°
2026-05-08 09:43 49.00596 2.74702 2816 ft 256 kts 85°
2026-05-08 09:43 49.00731 2.77429 3354 ft 259 kts 87°
2026-05-08 09:43 49.00603 2.80179 3845 ft 263 kts 99°
2026-05-08 09:44 49.00278 2.82927 4438 ft 264 kts 101°
2026-05-08 09:44 48.99946 2.85688 5008 ft 266 kts 100°
2026-05-08 09:44 48.99632 2.88477 5524 ft 270 kts 99°
2026-05-08 09:44 48.99321 2.91349 5947 ft 279 kts 99°
2026-05-08 09:45 48.99009 2.94286 6460 ft 283 kts 99°
2026-05-08 09:45 48.98626 2.97184 6986 ft 283 kts 112°
2026-05-08 09:45 48.97508 2.99618 7391 ft 285 kts 144°
2026-05-08 09:45 48.95749 3.00899 7924 ft 281 kts 172°
2026-05-08 09:46 48.93814 3.00877 8437 ft 279 kts 197°
2026-05-08 09:46 48.92082 2.99605 8925 ft 278 kts 223°
2026-05-08 09:46 48.90859 2.97351 9414 ft 277 kts 246°
2026-05-08 09:46 48.90221 2.94589 9812 ft 280 kts 254°
2026-05-08 09:47 48.89673 2.91728 10253 ft 286 kts 254°
2026-05-08 09:47 48.89115 2.88776 10412 ft 304 kts 254°
2026-05-08 09:47 48.88511 2.85599 10589 ft 323 kts 254°
2026-05-08 09:47 48.87864 2.82230 10744 ft 342 kts 254°
2026-05-08 09:48 48.87176 2.78678 11001 ft 358 kts 254°
2026-05-08 09:48 48.86456 2.74999 11506 ft 367 kts 253°
2026-05-08 09:48 48.85719 2.71256 12180 ft 372 kts 253°
2026-05-08 09:48 48.84974 2.67484 12968 ft 375 kts 253°
2026-05-08 09:49 48.84216 2.63683 13701 ft 376 kts 252°
2026-05-08 09:49 48.83117 2.60070 14182 ft 381 kts 237°
2026-05-08 09:49 48.81550 2.56849 14746 ft 388 kts 233°
2026-05-08 09:49 48.79918 2.53560 15438 ft 391 kts 234°
2026-05-08 09:50 48.78304 2.50225 16159 ft 394 kts 235°
2026-05-08 09:50 48.76699 2.46834 16841 ft 397 kts 235°
2026-05-08 09:50 48.75090 2.43407 17472 ft 402 kts 235°
2026-05-08 09:50 48.73440 2.39977 18044 ft 404 kts 231°
2026-05-08 09:51 48.71326 2.37138 18481 ft 410 kts 212°
2026-05-08 09:51 48.68822 2.35000 18933 ft 416 kts 210°
2026-05-08 09:51 48.66327 2.32870 19530 ft 419 kts 211°
2026-05-08 09:51 48.63798 2.30657 20155 ft 421 kts 211°
2026-05-08 09:52 48.61266 2.28402 20743 ft 424 kts 212°
2026-05-08 09:52 48.58717 2.26111 21276 ft 428 kts 212°
2026-05-08 09:52 48.56143 2.23797 21788 ft 432 kts 212°
2026-05-08 09:52 48.53548 2.21471 22301 ft 434 kts 211°
2026-05-08 09:53 48.50784 2.19616 22614 ft 441 kts 195°
2026-05-08 09:53 48.47717 2.19195 23016 ft 446 kts 177°
2026-05-08 09:53 48.44619 2.19572 23462 ft 449 kts 176°
2026-05-08 09:53 48.41492 2.19906 23898 ft 453 kts 177°
2026-05-08 09:54 48.38379 2.20190 24360 ft 455 kts 178°
2026-05-08 09:54 48.35211 2.20451 24826 ft 458 kts 178°
2026-05-08 09:54 48.32016 2.20707 25263 ft 461 kts 178°
2026-05-08 09:54 48.28807 2.20973 25679 ft 464 kts 177°
2026-05-08 09:55 48.25590 2.21518 26077 ft 468 kts 172°
2026-05-08 09:55 48.22371 2.22355 26471 ft 471 kts 170°
2026-05-08 09:55 48.19141 2.23266 26863 ft 473 kts 171°
2026-05-08 09:55 48.15938 2.24135 27229 ft 476 kts 171°
2026-05-08 09:56 48.12669 2.24958 27594 ft 478 kts 172°
2026-05-08 09:56 48.09374 2.25753 27941 ft 481 kts 172°
2026-05-08 09:56 48.06053 2.26410 28260 ft 482 kts 176°
2026-05-08 09:56 48.02694 2.26731 28564 ft 485 kts 179°
2026-05-08 09:57 47.95931 2.26989 29159 ft 489 kts 180°
2026-05-08 09:57 47.92528 2.27106 29437 ft 491 kts 179°
2026-05-08 09:57 47.89152 2.27254 29699 ft 493 kts 179°
2026-05-08 09:58 47.85722 2.27437 29982 ft 494 kts 179°
2026-05-08 09:58 47.82295 2.27643 30341 ft 492 kts 179°
2026-05-08 09:58 47.78876 2.27861 30720 ft 491 kts 178°
2026-05-08 09:58 47.75469 2.28083 31078 ft 490 kts 178°
2026-05-08 09:59 47.72064 2.28305 31370 ft 490 kts 178°
2026-05-08 09:59 47.68658 2.28525 31659 ft 489 kts 178°
2026-05-08 09:59 47.65262 2.28742 31968 ft 489 kts 179°
2026-05-08 09:59 47.61868 2.28957 32264 ft 488 kts 179°
2026-05-08 10:00 47.58523 2.29168 32549 ft 487 kts 179°
2026-05-08 10:00 47.55136 2.29381 32820 ft 487 kts 179°
2026-05-08 10:00 47.51746 2.29594 32934 ft 490 kts 179°
2026-05-08 10:00 47.48335 2.29808 32977 ft 491 kts 179°
2026-05-08 10:01 47.41521 2.30236 32978 ft 488 kts 179°
2026-05-08 10:01 47.34769 2.30659 33005 ft 485 kts 179°
2026-05-08 10:02 47.28078 2.31076 33002 ft 485 kts 179°
2026-05-08 10:02 47.21338 2.31495 33002 ft 485 kts 179°
2026-05-08 10:03 47.14594 2.31913 33003 ft 486 kts 179°
2026-05-08 10:03 47.07840 2.32332 33002 ft 486 kts 179°
2026-05-08 10:04 47.01118 2.32747 33002 ft 487 kts 179°
2026-05-08 10:04 46.94357 2.33164 33002 ft 487 kts 179°
2026-05-08 10:05 46.87593 2.33715 32991 ft 487 kts 172°
2026-05-08 10:05 46.81162 2.36597 33010 ft 489 kts 155°
2026-05-08 10:06 46.75373 2.41797 33008 ft 490 kts 147°
2026-05-08 10:06 46.69703 2.47345 33002 ft 491 kts 147°
2026-05-08 10:07 46.63997 2.52838 33003 ft 492 kts 147°
2026-05-08 10:07 46.58261 2.58280 33002 ft 493 kts 148°
2026-05-08 10:08 46.52549 2.63667 33003 ft 493 kts 148°
2026-05-08 10:08 46.46790 2.69087 32997 ft 493 kts 148°
2026-05-08 10:09 46.41036 2.74493 33003 ft 493 kts 148°
2026-05-08 10:09 46.35276 2.79891 33000 ft 493 kts 148°
2026-05-08 10:10 46.29565 2.85231 33001 ft 492 kts 148°
2026-05-08 10:10 46.23806 2.90601 33002 ft 493 kts 148°
2026-05-08 10:11 46.18040 2.95964 33001 ft 493 kts 148°
2026-05-08 10:11 46.12302 3.01288 33005 ft 494 kts 148°
2026-05-08 10:12 46.06524 3.06636 33001 ft 494 kts 148°
2026-05-08 10:12 46.00740 3.11978 33003 ft 494 kts 148°
2026-05-08 10:13 45.94705 3.16533 33008 ft 490 kts 163°
2026-05-08 10:13 45.88084 3.18138 33000 ft 485 kts 181°
2026-05-08 10:14 45.81331 3.17950 33003 ft 486 kts 182°
2026-05-08 10:14 45.74563 3.17754 33003 ft 487 kts 182°
2026-05-08 10:15 45.67935 3.17633 33002 ft 489 kts 181°
2026-05-08 10:15 45.61182 3.17544 33000 ft 489 kts 181°
2026-05-08 10:16 45.54370 3.17461 33002 ft 490 kts 181°
2026-05-08 10:16 45.47549 3.17374 33003 ft 490 kts 181°
2026-05-08 10:17 45.40733 3.17285 32998 ft 490 kts 181°
2026-05-08 10:17 45.33916 3.17196 33003 ft 490 kts 181°
2026-05-08 10:18 45.27142 3.17105 33005 ft 490 kts 181°
2026-05-08 10:18 45.20318 3.17018 33002 ft 490 kts 181°
2026-05-08 10:19 45.13495 3.16930 32995 ft 491 kts 181°
2026-05-08 10:20 45.03244 3.16797 33009 ft 492 kts 181°
2026-05-08 10:20 44.96453 3.16710 33003 ft 492 kts 181°
2026-05-08 10:21 44.89609 3.16616 32999 ft 492 kts 181°
2026-05-08 10:21 44.82750 3.16515 32998 ft 493 kts 181°
2026-05-08 10:22 44.75895 3.16416 33001 ft 493 kts 181°
2026-05-08 10:22 44.69075 3.16318 33002 ft 494 kts 181°
2026-05-08 10:23 44.62459 3.16223 33001 ft 494 kts 181°
2026-05-08 10:23 44.55580 3.16223 33003 ft 494 kts 180°
2026-05-08 10:24 44.48702 3.16377 33008 ft 494 kts 180°
2026-05-08 10:24 44.41878 3.16526 33002 ft 493 kts 180°
2026-05-08 10:25 44.35027 3.16651 33002 ft 491 kts 180°
2026-05-08 10:25 44.28198 3.16765 33002 ft 491 kts 180°
2026-05-08 10:26 44.21371 3.16881 33004 ft 490 kts 180°
2026-05-08 10:26 44.14603 3.16997 32995 ft 490 kts 180°
2026-05-08 10:27 44.07794 3.17044 33001 ft 489 kts 184°
2026-05-08 10:27 44.01019 3.16274 33007 ft 488 kts 186°
2026-05-08 10:28 43.94258 3.15409 33004 ft 489 kts 186°
2026-05-08 10:28 43.87467 3.14569 33009 ft 490 kts 186°
2026-05-08 10:29 43.80721 3.13760 33001 ft 490 kts 186°
2026-05-08 10:29 43.73927 3.12956 33002 ft 490 kts 186°
2026-05-08 10:30 43.67140 3.12151 33002 ft 489 kts 186°
2026-05-08 10:30 43.60369 3.11350 32999 ft 488 kts 186°
2026-05-08 10:31 43.53658 3.10557 32983 ft 487 kts 186°
2026-05-08 10:31 43.46919 3.09763 33004 ft 485 kts 186°
2026-05-08 10:32 43.40193 3.08972 33000 ft 485 kts 186°
2026-05-08 10:32 43.33480 3.08183 33002 ft 484 kts 186°
2026-05-08 10:33 43.26815 3.07403 33002 ft 484 kts 186°
2026-05-08 10:33 43.20108 3.06619 33002 ft 484 kts 186°
2026-05-08 10:34 43.13397 3.05836 33003 ft 484 kts 186°
2026-05-08 10:34 43.06684 3.05056 32999 ft 484 kts 186°
2026-05-08 10:35 42.99974 3.04277 33002 ft 485 kts 186°
2026-05-08 10:35 42.93301 3.03504 33000 ft 485 kts 186°
2026-05-08 10:36 42.86578 3.02727 33003 ft 485 kts 186°
2026-05-08 10:36 42.79849 3.01951 33000 ft 485 kts 186°
2026-05-08 10:37 42.73126 3.01177 33001 ft 485 kts 186°
2026-05-08 10:37 42.66443 3.00410 33001 ft 485 kts 186°
2026-05-08 10:38 42.59720 2.99639 33001 ft 485 kts 186°
2026-05-08 10:38 42.52992 2.98870 33002 ft 485 kts 186°
2026-05-08 10:39 42.46250 2.98343 32984 ft 488 kts 179°
2026-05-08 10:39 42.39509 2.98898 33008 ft 489 kts 177°
2026-05-08 10:40 42.32714 2.99525 33005 ft 490 kts 177°
2026-05-08 10:40 42.25919 3.00112 33000 ft 489 kts 177°
2026-05-08 10:41 42.19140 3.00670 32998 ft 487 kts 178°
2026-05-08 10:41 42.12417 3.01214 33001 ft 486 kts 178°
2026-05-08 10:42 42.05667 3.01760 33001 ft 486 kts 178°
2026-05-08 10:42 41.98936 3.02306 33000 ft 485 kts 178°
2026-05-08 10:43 41.92196 3.02851 33003 ft 485 kts 178°
2026-05-08 10:43 41.85452 3.03396 33003 ft 486 kts 178°
2026-05-08 10:44 41.78746 3.03937 33003 ft 486 kts 178°
2026-05-08 10:44 41.71986 3.04480 33000 ft 487 kts 178°
2026-05-08 10:45 41.65221 3.05023 33002 ft 487 kts 178°
2026-05-08 10:45 41.58458 3.05565 33002 ft 487 kts 178°
2026-05-08 10:46 41.51697 3.06105 33002 ft 487 kts 178°
2026-05-08 10:46 41.44986 3.06640 33002 ft 486 kts 178°
2026-05-08 10:47 41.38226 3.07178 33002 ft 486 kts 178°
2026-05-08 10:47 41.31473 3.07715 33000 ft 486 kts 178°
2026-05-08 10:48 41.24720 3.08250 33001 ft 486 kts 178°
2026-05-08 10:48 41.18018 3.08780 33002 ft 486 kts 178°
2026-05-08 10:49 41.11265 3.09313 33002 ft 486 kts 178°
2026-05-08 10:49 41.04515 3.09845 33002 ft 486 kts 178°
2026-05-08 10:50 40.97773 3.10375 33002 ft 486 kts 178°
2026-05-08 10:50 40.91067 3.10901 33003 ft 486 kts 178°
2026-05-08 10:51 40.84308 3.11430 33002 ft 486 kts 178°
2026-05-08 10:51 40.77555 3.11958 33001 ft 486 kts 178°
2026-05-08 10:52 40.70802 3.12484 33003 ft 486 kts 178°
2026-05-08 10:52 40.64045 3.13010 33000 ft 486 kts 178°
2026-05-08 10:53 40.57333 3.13531 33001 ft 486 kts 178°
2026-05-08 10:53 40.50578 3.14049 33002 ft 486 kts 179°
2026-05-08 10:54 40.43829 3.13902 33009 ft 485 kts 183°
2026-05-08 10:54 40.37089 3.13536 33004 ft 485 kts 183°
2026-05-08 10:55 40.30388 3.13203 33002 ft 485 kts 183°
2026-05-08 10:55 40.23634 3.12894 33002 ft 486 kts 183°
2026-05-08 10:56 40.16877 3.12591 33001 ft 486 kts 183°
2026-05-08 10:56 40.10123 3.12286 33003 ft 486 kts 183°
2026-05-08 10:57 40.03412 3.11983 33002 ft 486 kts 183°
2026-05-08 10:57 39.93364 3.10833 33003 ft 483 kts 196°
2026-05-08 10:58 39.87142 3.07646 32999 ft 481 kts 210°
2026-05-08 10:58 39.81340 3.03323 33000 ft 481 kts 211°
2026-05-08 10:59 39.75559 2.99035 33004 ft 482 kts 210°
2026-05-08 10:59 39.69705 2.94772 33001 ft 483 kts 210°
2026-05-08 11:00 39.63838 2.90530 33001 ft 483 kts 210°
2026-05-08 11:00 39.57966 2.86289 33001 ft 483 kts 210°
2026-05-08 11:01 39.52128 2.82078 33002 ft 483 kts 210°
2026-05-08 11:01 39.46196 2.78027 32981 ft 482 kts 200°
2026-05-08 11:02 39.42929 2.77077 33009 ft 483 kts 186°
2026-05-08 11:02 39.36288 2.78083 33015 ft 483 kts 165°
2026-05-08 11:03 39.29810 2.80503 33011 ft 487 kts 165°
2026-05-08 11:03 39.23303 2.82824 33006 ft 490 kts 166°
2026-05-08 11:04 39.16705 2.85106 33004 ft 492 kts 166°
2026-05-08 11:04 39.10088 2.87384 33001 ft 492 kts 166°
2026-05-08 11:05 39.03481 2.89661 32998 ft 491 kts 166°
2026-05-08 11:05 38.96936 2.91882 33000 ft 490 kts 166°
2026-05-08 11:06 38.90358 2.94094 33002 ft 488 kts 166°
2026-05-08 11:06 38.83802 2.96337 32999 ft 487 kts 166°
2026-05-08 11:07 38.77252 2.98582 33001 ft 487 kts 166°
2026-05-08 11:07 38.70707 3.00815 33001 ft 487 kts 166°
2026-05-08 11:08 38.64208 3.03026 33002 ft 487 kts 166°
2026-05-08 11:08 38.57658 3.05250 33003 ft 487 kts 166°
2026-05-08 11:09 38.51099 3.07473 33003 ft 488 kts 166°
2026-05-08 11:09 38.44532 3.09695 33001 ft 488 kts 166°
2026-05-08 11:10 38.38004 3.11899 33002 ft 489 kts 166°
2026-05-08 11:10 38.31433 3.14115 33001 ft 489 kts 166°
2026-05-08 11:11 38.24856 3.16319 33002 ft 489 kts 166°
2026-05-08 11:11 38.18323 3.18494 33001 ft 489 kts 166°
2026-05-08 11:12 38.11743 3.20672 33001 ft 488 kts 167°
2026-05-08 11:12 38.05117 3.22579 33001 ft 488 kts 169°
2026-05-08 11:13 37.98488 3.24365 33000 ft 488 kts 169°
2026-05-08 11:13 37.91894 3.26169 33001 ft 488 kts 168°
2026-05-08 11:14 37.85265 3.28013 33002 ft 488 kts 168°
2026-05-08 11:14 37.78638 3.29863 33000 ft 488 kts 168°
2026-05-08 11:15 37.72009 3.31709 33001 ft 488 kts 168°
2026-05-08 11:15 37.65378 3.33551 33000 ft 488 kts 168°
2026-05-08 11:16 37.58793 3.35376 33001 ft 488 kts 168°
2026-05-08 11:16 37.52161 3.37211 33002 ft 488 kts 168°
2026-05-08 11:17 37.45531 3.39042 33000 ft 488 kts 168°
2026-05-08 11:17 37.38895 3.40871 33001 ft 488 kts 168°
2026-05-08 11:18 37.32305 3.42684 33000 ft 488 kts 168°
2026-05-08 11:18 37.25672 3.44506 33002 ft 488 kts 168°
2026-05-08 11:19 37.19037 3.46325 33000 ft 488 kts 168°
2026-05-08 11:19 37.12404 3.48141 33002 ft 488 kts 168°
2026-05-08 11:20 37.05814 3.49941 33002 ft 488 kts 168°
2026-05-08 11:20 36.99190 3.51748 33002 ft 488 kts 168°
2026-05-08 11:21 36.92561 3.53552 33001 ft 488 kts 168°
2026-05-08 11:21 36.85923 3.55357 33002 ft 488 kts 169°
2026-05-08 11:22 36.79341 3.57197 33002 ft 488 kts 166°
2026-05-08 11:22 36.72907 3.59934 33006 ft 489 kts 161°
2026-05-08 11:23 36.66510 3.62850 33008 ft 490 kts 161°
2026-05-08 11:23 36.60089 3.65726 33000 ft 491 kts 161°
2026-05-08 11:24 36.53684 3.68561 33008 ft 492 kts 161°
2026-05-08 11:24 36.47224 3.71412 33000 ft 493 kts 161°
2026-05-08 11:25 36.40757 3.74267 33000 ft 494 kts 161°
2026-05-08 11:25 36.34274 3.77120 33001 ft 494 kts 161°
2026-05-08 11:26 36.27827 3.79935 33001 ft 495 kts 161°
2026-05-08 11:26 36.21333 3.82763 33001 ft 495 kts 161°
2026-05-08 11:27 36.14833 3.85592 33001 ft 495 kts 161°
2026-05-08 11:27 36.08324 3.88421 32987 ft 496 kts 161°
2026-05-08 11:28 36.01813 3.91246 33002 ft 496 kts 161°
2026-05-08 11:28 35.95347 3.94047 33005 ft 497 kts 161°
2026-05-08 11:29 35.88823 3.96868 32998 ft 496 kts 161°
2026-05-08 11:29 35.82314 3.99678 32999 ft 495 kts 161°
2026-05-08 11:30 35.75909 4.02438 33000 ft 494 kts 161°
2026-05-08 11:30 35.69478 4.05205 32999 ft 492 kts 162°
2026-05-08 11:31 35.63019 4.07982 32999 ft 492 kts 161°
2026-05-08 11:31 35.56569 4.10763 33001 ft 491 kts 161°
2026-05-08 11:32 35.50118 4.13541 33002 ft 491 kts 161°
2026-05-08 11:32 35.43709 4.16295 33002 ft 492 kts 161°
2026-05-08 11:33 35.37268 4.19113 32997 ft 491 kts 157°
2026-05-08 11:33 35.31481 4.23556 33009 ft 494 kts 140°
2026-05-08 11:34 35.26808 4.29711 33012 ft 494 kts 130°
2026-05-08 11:34 35.22438 4.36157 33002 ft 496 kts 130°
2026-05-08 11:35 35.17991 4.42629 33003 ft 498 kts 131°
2026-05-08 11:35 35.13495 4.49077 33001 ft 499 kts 131°
2026-05-08 11:36 35.08972 4.55528 32999 ft 500 kts 131°
2026-05-08 11:36 35.04477 4.61928 33004 ft 500 kts 131°
2026-05-08 11:37 34.99959 4.68355 33000 ft 499 kts 131°
2026-05-08 11:37 34.95436 4.74779 33000 ft 499 kts 131°
2026-05-08 11:38 34.90916 4.81186 33002 ft 498 kts 131°
2026-05-08 11:38 34.86433 4.87530 32999 ft 497 kts 131°
2026-05-08 11:39 34.81923 4.93902 33002 ft 496 kts 131°
2026-05-08 11:39 34.77466 5.00186 33000 ft 495 kts 131°
2026-05-08 11:40 34.73005 5.06565 32999 ft 495 kts 131°
2026-05-08 11:40 34.68577 5.12961 33001 ft 494 kts 130°
2026-05-08 11:41 34.64181 5.19294 33001 ft 493 kts 131°
2026-05-08 11:41 34.59749 5.25653 33001 ft 493 kts 131°
2026-05-08 11:42 34.55312 5.32002 33002 ft 493 kts 131°
2026-05-08 11:42 34.50869 5.38348 33002 ft 493 kts 131°
2026-05-08 11:43 34.46455 5.44642 33001 ft 494 kts 131°
2026-05-08 11:43 34.42005 5.50976 33002 ft 494 kts 131°
2026-05-08 11:44 34.37547 5.57310 33002 ft 494 kts 131°
2026-05-08 11:44 34.33086 5.63637 33001 ft 494 kts 131°
2026-05-08 11:45 34.28653 5.69913 33002 ft 494 kts 131°
2026-05-08 11:45 34.24187 5.76225 33001 ft 494 kts 131°
2026-05-08 11:46 34.19719 5.82528 33000 ft 494 kts 131°
2026-05-08 11:46 34.15247 5.88826 33002 ft 494 kts 131°
2026-05-08 11:47 34.10810 5.95063 33002 ft 493 kts 131°
2026-05-08 11:47 34.06385 6.01272 33000 ft 493 kts 131°
2026-05-08 11:48 34.01911 6.07539 33000 ft 493 kts 131°
2026-05-08 11:48 33.97438 6.13794 33001 ft 493 kts 131°
2026-05-08 11:49 33.92994 6.19998 33002 ft 493 kts 131°
2026-05-08 11:49 33.88515 6.26239 33001 ft 493 kts 131°
2026-05-08 11:50 33.84030 6.32478 33000 ft 493 kts 131°
2026-05-08 11:50 33.79542 6.38710 33001 ft 493 kts 131°
2026-05-08 11:51 33.75048 6.44940 33002 ft 493 kts 131°
2026-05-08 11:51 33.70582 6.51121 33002 ft 493 kts 131°
2026-05-08 11:52 33.66078 6.57343 33001 ft 494 kts 131°
2026-05-08 11:52 33.61574 6.63556 33001 ft 494 kts 131°
2026-05-08 11:53 33.57060 6.69773 32999 ft 494 kts 131°
2026-05-08 11:53 33.52430 6.75762 32985 ft 493 kts 140°
2026-05-08 11:54 33.46843 6.80468 33004 ft 491 kts 153°
2026-05-08 11:54 33.40666 6.83924 33005 ft 490 kts 157°
2026-05-08 11:55 33.34436 6.87266 33001 ft 491 kts 156°
2026-05-08 11:55 33.28260 6.90618 33001 ft 491 kts 156°
2026-05-08 11:56 33.22051 6.94022 33001 ft 491 kts 156°
2026-05-08 11:56 33.15838 6.97433 33003 ft 491 kts 156°
2026-05-08 11:57 33.09697 7.00797 33001 ft 491 kts 156°
2026-05-08 11:57 33.03524 7.04172 33001 ft 491 kts 156°
2026-05-08 11:58 32.97311 7.07563 33001 ft 491 kts 156°
2026-05-08 11:58 32.91101 7.10947 33001 ft 491 kts 156°
2026-05-08 11:59 32.81780 7.16017 33001 ft 491 kts 156°
2026-05-08 11:59 32.75610 7.19366 33000 ft 491 kts 156°
2026-05-08 12:00 32.69396 7.22734 33001 ft 491 kts 156°
2026-05-08 12:00 32.63184 7.26095 33002 ft 491 kts 156°
2026-05-08 12:01 32.56963 7.29457 33001 ft 491 kts 156°
2026-05-08 12:01 32.50792 7.32786 33001 ft 491 kts 156°
2026-05-08 12:02 32.44570 7.36138 33002 ft 491 kts 156°
2026-05-08 12:02 32.38345 7.39486 33001 ft 491 kts 156°
2026-05-08 12:03 32.32124 7.42827 33001 ft 491 kts 156°
2026-05-08 12:03 32.25944 7.46141 33000 ft 491 kts 156°
2026-05-08 12:04 32.19716 7.49476 33003 ft 491 kts 156°
2026-05-08 12:04 32.13493 7.52803 33001 ft 491 kts 156°
2026-05-08 12:05 32.07267 7.56127 33003 ft 491 kts 156°
2026-05-08 12:05 32.01034 7.59450 32998 ft 491 kts 156°
2026-05-08 12:06 31.94857 7.62737 33002 ft 491 kts 156°
2026-05-08 12:06 31.88625 7.66050 33001 ft 491 kts 156°
2026-05-08 12:07 31.82392 7.69359 33001 ft 491 kts 156°
2026-05-08 12:07 31.77193 7.72041 33000 ft 491 kts 160°
2026-05-08 12:08 31.69559 7.74451 33008 ft 488 kts 170°
2026-05-08 12:08 31.62884 7.75993 33003 ft 489 kts 170°
2026-05-08 12:09 31.57337 7.77293 33002 ft 489 kts 169°
2026-05-08 12:09 31.50661 7.78889 33000 ft 490 kts 169°
2026-05-08 12:10 31.42902 7.80759 33002 ft 490 kts 169°
2026-05-08 12:10 31.37348 7.82097 33002 ft 490 kts 169°
2026-05-08 12:11 31.30671 7.83701 33001 ft 490 kts 169°
2026-05-08 12:11 31.23990 7.85303 33000 ft 490 kts 169°
2026-05-08 12:12 31.17310 7.86902 33002 ft 490 kts 169°
2026-05-08 12:12 31.10672 7.88489 33002 ft 490 kts 169°
2026-05-08 12:13 31.03998 7.90083 33000 ft 490 kts 169°
2026-05-08 12:13 30.97333 7.91672 33001 ft 490 kts 169°
2026-05-08 12:14 30.90657 7.93261 33001 ft 490 kts 169°
2026-05-08 12:14 30.83980 7.94848 33000 ft 490 kts 169°
2026-05-08 12:15 30.77346 7.96423 33002 ft 490 kts 169°
2026-05-08 12:15 30.70669 7.98006 33002 ft 490 kts 169°
2026-05-08 12:16 30.63990 7.99587 33000 ft 490 kts 169°
2026-05-08 12:16 30.57374 8.01151 33002 ft 490 kts 169°
2026-05-08 12:17 30.50738 8.02717 33002 ft 490 kts 169°
2026-05-08 12:17 30.44051 8.04294 33001 ft 490 kts 169°
2026-05-08 12:18 30.37364 8.05868 33001 ft 490 kts 169°
2026-05-08 12:18 30.30675 8.07440 32998 ft 491 kts 169°
2026-05-08 12:19 30.24034 8.08999 33000 ft 490 kts 169°
2026-05-08 12:19 30.17346 8.10567 33003 ft 490 kts 169°
2026-05-08 12:20 30.10659 8.12133 33002 ft 490 kts 169°
2026-05-08 12:20 30.03969 8.13700 33007 ft 491 kts 169°
2026-05-08 12:21 29.97283 8.15286 32997 ft 491 kts 169°
2026-05-08 12:21 29.90639 8.16867 33001 ft 491 kts 169°
2026-05-08 12:22 29.83952 8.18456 33002 ft 491 kts 169°
2026-05-08 12:22 29.77251 8.20043 32998 ft 491 kts 169°
2026-05-08 12:23 29.70557 8.21625 33002 ft 491 kts 169°
2026-05-08 12:23 29.63910 8.23195 33003 ft 491 kts 169°
2026-05-08 12:24 29.57215 8.24773 33000 ft 491 kts 169°
2026-05-08 12:24 29.50525 8.26349 33001 ft 491 kts 169°
2026-05-08 12:25 29.43837 8.27921 33001 ft 491 kts 169°
2026-05-08 12:25 29.37145 8.29493 33001 ft 491 kts 169°
2026-05-08 12:26 29.30501 8.31051 33002 ft 491 kts 169°
2026-05-08 12:26 29.23804 8.32619 33000 ft 491 kts 169°
2026-05-08 12:27 29.17116 8.34184 33002 ft 491 kts 169°
2026-05-08 12:27 29.10416 8.35749 33000 ft 491 kts 169°
2026-05-08 12:28 29.03760 8.37302 33002 ft 492 kts 169°
2026-05-08 12:28 28.97068 8.38860 33001 ft 492 kts 169°
2026-05-08 12:29 28.90365 8.40420 33000 ft 492 kts 169°
2026-05-08 12:29 28.83660 8.41978 33002 ft 492 kts 169°
2026-05-08 12:30 28.76953 8.43534 33001 ft 492 kts 169°
2026-05-08 12:30 28.70285 8.45079 33002 ft 492 kts 169°
2026-05-08 12:31 28.63569 8.46634 33003 ft 493 kts 169°
2026-05-08 12:31 28.56850 8.48187 33001 ft 493 kts 169°
2026-05-08 12:32 28.50131 8.49738 33000 ft 493 kts 169°
2026-05-08 12:32 28.43458 8.51277 33002 ft 493 kts 169°
2026-05-08 12:33 28.36736 8.52824 33001 ft 493 kts 169°
2026-05-08 12:33 28.30019 8.54369 33001 ft 493 kts 169°
2026-05-08 12:34 28.23301 8.55912 33000 ft 492 kts 169°
2026-05-08 12:34 28.16638 8.57441 33001 ft 492 kts 169°
2026-05-08 12:35 28.09924 8.58979 33001 ft 492 kts 169°
2026-05-08 12:35 28.03217 8.60523 33001 ft 492 kts 169°
2026-05-08 12:36 27.96526 8.62071 33001 ft 492 kts 169°
2026-05-08 12:36 27.89867 8.63610 33002 ft 492 kts 169°
2026-05-08 12:37 27.83158 8.65157 33000 ft 492 kts 169°
2026-05-08 12:37 27.76450 8.66700 33001 ft 492 kts 169°
2026-05-08 12:38 27.69739 8.68243 33002 ft 492 kts 169°
2026-05-08 12:38 27.63027 8.69784 33003 ft 492 kts 169°
2026-05-08 12:39 27.56358 8.71313 33002 ft 493 kts 169°
2026-05-08 12:39 27.49639 8.72852 33001 ft 493 kts 169°
2026-05-08 12:40 27.42920 8.74389 33002 ft 493 kts 169°
2026-05-08 12:40 27.36202 8.75924 33002 ft 493 kts 169°
2026-05-08 12:41 27.29532 8.77446 33002 ft 493 kts 169°
2026-05-08 12:41 27.22816 8.78977 33001 ft 492 kts 169°
2026-05-08 12:42 27.16099 8.80506 33000 ft 492 kts 169°
2026-05-08 12:42 27.09385 8.82032 33001 ft 492 kts 169°
2026-05-08 12:43 27.02671 8.83557 33001 ft 492 kts 169°
2026-05-08 12:43 26.96017 8.85070 33002 ft 492 kts 169°
2026-05-08 12:44 26.89308 8.86607 33001 ft 492 kts 169°
2026-05-08 12:44 26.82592 8.88146 33000 ft 492 kts 169°
2026-05-08 12:45 26.75881 8.89681 33000 ft 492 kts 169°
2026-05-08 12:45 26.69212 8.91204 33001 ft 493 kts 169°
2026-05-08 12:46 26.62494 8.92735 33000 ft 493 kts 169°
2026-05-08 12:46 26.55776 8.94265 33001 ft 493 kts 169°
2026-05-08 12:47 26.49056 8.95794 33002 ft 493 kts 169°
2026-05-08 12:47 26.42374 8.97312 33001 ft 493 kts 169°
2026-05-08 12:48 26.35652 8.98837 33001 ft 493 kts 169°
2026-05-08 12:48 26.28995 9.00346 33001 ft 494 kts 169°
2026-05-08 12:49 26.22259 9.01872 33001 ft 494 kts 169°
2026-05-08 12:49 26.15520 9.03396 33004 ft 495 kts 169°
2026-05-08 12:50 26.08814 9.04910 33001 ft 495 kts 169°
2026-05-08 12:50 26.02057 9.06436 33002 ft 496 kts 169°
2026-05-08 12:51 25.91915 9.08732 33001 ft 497 kts 169°
2026-05-08 12:52 25.85143 9.10272 33006 ft 497 kts 169°
2026-05-08 12:52 25.75040 9.12565 33003 ft 496 kts 169°
2026-05-08 12:53 25.68284 9.14095 32999 ft 495 kts 169°
2026-05-08 12:53 25.61543 9.15620 32999 ft 494 kts 169°
2026-05-08 12:54 25.54806 9.17142 33002 ft 494 kts 169°
2026-05-08 12:54 25.48101 9.18655 33004 ft 495 kts 169°
2026-05-08 12:55 25.41355 9.20176 33004 ft 496 kts 169°
2026-05-08 12:55 25.34590 9.21699 33001 ft 496 kts 169°
2026-05-08 12:56 25.27813 9.23223 33002 ft 497 kts 169°
2026-05-08 12:56 25.21075 9.24737 33001 ft 498 kts 169°
2026-05-08 12:57 25.14277 9.26263 33001 ft 499 kts 169°
2026-05-08 12:57 25.07466 9.27789 33000 ft 500 kts 169°
2026-05-08 12:58 25.00645 9.29316 32999 ft 501 kts 169°
2026-05-08 12:58 24.93870 9.30831 33001 ft 501 kts 169°
2026-05-08 12:59 24.87032 9.32359 33008 ft 501 kts 169°
2026-05-08 12:59 24.80197 9.33884 33004 ft 501 kts 169°
2026-05-08 13:00 24.73375 9.35405 32996 ft 499 kts 169°
2026-05-08 13:00 24.66623 9.36908 32999 ft 497 kts 169°
2026-05-08 13:01 24.59847 9.38415 33002 ft 496 kts 169°
2026-05-08 13:01 24.53089 9.39916 33003 ft 495 kts 169°
2026-05-08 13:02 24.46335 9.41415 33003 ft 495 kts 169°
2026-05-08 13:02 24.39582 9.42913 33002 ft 495 kts 169°
2026-05-08 13:03 24.32882 9.44425 33000 ft 495 kts 167°
2026-05-08 13:03 24.26384 9.46940 33008 ft 496 kts 156°
2026-05-08 13:04 24.20335 9.50599 33008 ft 497 kts 150°
2026-05-08 13:04 24.14430 9.54455 33003 ft 498 kts 150°
2026-05-08 13:05 24.08463 9.58321 33001 ft 498 kts 150°
2026-05-08 13:05 24.02481 9.62157 33002 ft 499 kts 150°
2026-05-08 13:06 23.96495 9.65977 33000 ft 499 kts 150°
2026-05-08 13:06 23.90539 9.69773 33002 ft 499 kts 150°
2026-05-08 13:07 23.84549 9.73589 32999 ft 498 kts 150°
2026-05-08 13:07 23.78561 9.77402 33001 ft 498 kts 150°
2026-05-08 13:08 23.72579 9.81205 33001 ft 498 kts 150°
2026-05-08 13:08 23.66638 9.84980 33001 ft 497 kts 150°
2026-05-08 13:09 23.60652 9.88778 33001 ft 497 kts 150°
2026-05-08 13:09 23.54674 9.92567 33001 ft 497 kts 150°
2026-05-08 13:10 23.48691 9.96355 33001 ft 497 kts 150°
2026-05-08 13:10 23.42764 10.00104 33002 ft 497 kts 150°
2026-05-08 13:11 23.36830 10.03854 33001 ft 497 kts 150°
2026-05-08 13:11 23.30856 10.07625 33002 ft 497 kts 150°
2026-05-08 13:12 23.24878 10.11394 33001 ft 497 kts 150°
2026-05-08 13:12 23.18898 10.15161 33002 ft 497 kts 150°
2026-05-08 13:13 23.12957 10.18899 33002 ft 497 kts 151°
2026-05-08 13:13 23.06976 10.22659 33001 ft 497 kts 151°
2026-05-08 13:14 23.00995 10.26414 33002 ft 497 kts 151°
2026-05-08 13:14 22.95015 10.30166 33000 ft 497 kts 151°
2026-05-08 13:15 22.89066 10.33894 33001 ft 497 kts 151°
2026-05-08 13:15 22.83082 10.37640 33002 ft 497 kts 151°
2026-05-08 13:16 22.77095 10.41384 33000 ft 497 kts 151°
2026-05-08 13:16 22.71107 10.45125 33002 ft 497 kts 151°
2026-05-08 13:17 22.65158 10.48839 33001 ft 497 kts 151°
2026-05-08 13:17 22.59212 10.52645 33002 ft 497 kts 149°
2026-05-08 13:18 22.53354 10.56603 33000 ft 497 kts 148°
2026-05-08 13:18 22.47499 10.60576 33001 ft 496 kts 149°
2026-05-08 13:19 22.41675 10.64494 33001 ft 496 kts 149°
2026-05-08 13:19 22.35807 10.68419 33002 ft 496 kts 149°
2026-05-08 13:20 22.29933 10.72340 33002 ft 496 kts 149°
2026-05-08 13:20 22.24063 10.76256 33002 ft 496 kts 149°
2026-05-08 13:21 22.18230 10.80145 33000 ft 496 kts 149°
2026-05-08 13:21 22.12357 10.84057 33001 ft 496 kts 149°
2026-05-08 13:22 22.06486 10.87965 33001 ft 496 kts 149°
2026-05-08 13:22 22.00612 10.91870 33001 ft 496 kts 149°
2026-05-08 13:23 21.94783 10.95741 33002 ft 496 kts 149°
2026-05-08 13:23 21.88909 10.99639 33002 ft 496 kts 149°
2026-05-08 13:24 21.83078 11.03504 33001 ft 496 kts 149°
2026-05-08 13:24 21.77207 11.07392 33000 ft 496 kts 149°
2026-05-08 13:25 21.71370 11.11253 33001 ft 496 kts 149°
2026-05-08 13:25 21.65495 11.15137 33000 ft 496 kts 149°
2026-05-08 13:26 21.59620 11.19015 33000 ft 496 kts 149°
2026-05-08 13:26 21.53746 11.22891 33000 ft 495 kts 149°
2026-05-08 13:27 21.47911 11.26736 33001 ft 495 kts 149°
2026-05-08 13:27 21.42032 11.30607 33002 ft 495 kts 149°
2026-05-08 13:28 21.36158 11.34471 33002 ft 495 kts 149°
2026-05-08 13:28 21.30280 11.38334 33002 ft 495 kts 149°
2026-05-08 13:29 21.24444 11.42166 33002 ft 495 kts 149°
2026-05-08 13:29 21.18567 11.46022 32999 ft 495 kts 149°
2026-05-08 13:30 21.12686 11.49877 33000 ft 495 kts 149°
2026-05-08 13:30 21.06804 11.53721 33001 ft 495 kts 149°
2026-05-08 13:31 21.00959 11.57536 33000 ft 495 kts 149°
2026-05-08 13:31 20.95087 11.61367 33001 ft 495 kts 149°
2026-05-08 13:32 20.89203 11.65203 33001 ft 495 kts 149°
2026-05-08 13:32 20.83320 11.69036 33001 ft 495 kts 149°
2026-05-08 13:33 20.77472 11.72842 33000 ft 495 kts 149°
2026-05-08 13:33 20.71588 11.76668 33002 ft 495 kts 149°
2026-05-08 13:34 20.65703 11.80491 33001 ft 495 kts 149°
2026-05-08 13:34 20.59815 11.84313 33002 ft 495 kts 149°
2026-05-08 13:35 20.53967 11.88105 33002 ft 495 kts 149°
2026-05-08 13:35 20.48082 11.91921 33002 ft 495 kts 149°
2026-05-08 13:36 20.42194 11.95736 33001 ft 495 kts 149°
2026-05-08 13:36 20.36309 11.99548 33000 ft 495 kts 149°
2026-05-08 13:37 20.30521 12.03293 33001 ft 495 kts 149°
2026-05-08 13:37 20.24632 12.07100 33001 ft 495 kts 149°
2026-05-08 13:38 20.18741 12.10905 33001 ft 495 kts 149°
2026-05-08 13:38 20.12849 12.14707 33001 ft 495 kts 149°
2026-05-08 13:39 20.06961 12.18503 33001 ft 495 kts 149°
2026-05-08 13:39 20.01106 12.22274 33001 ft 495 kts 149°
2026-05-08 13:40 19.95218 12.26064 33001 ft 495 kts 149°
2026-05-08 13:40 19.89324 12.29853 33002 ft 495 kts 149°
2026-05-08 13:41 19.83430 12.33640 33002 ft 495 kts 149°
2026-05-08 13:41 19.77575 12.37398 33001 ft 495 kts 149°
2026-05-08 13:42 19.71683 12.41177 33002 ft 495 kts 149°
2026-05-08 13:42 19.65789 12.44954 33001 ft 495 kts 149°
2026-05-08 13:43 19.59894 12.48728 33002 ft 495 kts 150°
2026-05-08 13:43 19.54036 12.52475 33001 ft 495 kts 150°
2026-05-08 13:44 19.48138 12.56244 33001 ft 495 kts 150°
2026-05-08 13:44 19.42243 12.60008 33001 ft 495 kts 150°
2026-05-08 13:45 19.36343 12.63773 33000 ft 495 kts 150°
2026-05-08 13:45 19.30483 12.67508 33002 ft 495 kts 150°
2026-05-08 13:46 19.24579 12.71269 33001 ft 495 kts 150°
2026-05-08 13:46 19.18676 12.75026 33000 ft 495 kts 150°
2026-05-08 13:47 19.12772 12.78781 33002 ft 495 kts 150°
2026-05-08 13:47 19.06907 12.82508 33000 ft 495 kts 150°
2026-05-08 13:48 19.01000 12.86252 33001 ft 495 kts 151°
2026-05-08 13:48 18.94778 12.89290 33001 ft 493 kts 162°
2026-05-08 13:49 18.88228 12.91404 33008 ft 492 kts 164°
2026-05-08 13:49 18.81665 12.93483 33002 ft 493 kts 164°
2026-05-08 13:50 18.75146 12.95585 32998 ft 493 kts 164°
2026-05-08 13:50 18.68581 12.97722 33005 ft 494 kts 163°
2026-05-08 13:51 18.62017 12.99863 33001 ft 494 kts 163°
2026-05-08 13:51 18.55514 13.01980 33002 ft 494 kts 164°
2026-05-08 13:52 18.48997 13.04099 33002 ft 494 kts 164°
2026-05-08 13:52 18.42435 13.06230 33000 ft 493 kts 164°
2026-05-08 13:53 18.35871 13.08360 33003 ft 493 kts 164°
2026-05-08 13:53 18.29308 13.10488 33000 ft 493 kts 164°
2026-05-08 13:54 18.22790 13.12600 32999 ft 493 kts 164°
2026-05-08 13:54 18.16233 13.14723 33001 ft 493 kts 164°
2026-05-08 13:55 18.09675 13.16845 33001 ft 493 kts 164°
2026-05-08 13:56 17.99841 13.20023 33001 ft 493 kts 164°
2026-05-08 13:56 17.93327 13.22127 33001 ft 493 kts 164°
2026-05-08 13:57 17.86765 13.24244 33001 ft 493 kts 164°
2026-05-08 13:57 17.80204 13.26359 33001 ft 493 kts 164°
2026-05-08 13:58 17.73641 13.28473 33001 ft 493 kts 164°
2026-05-08 13:58 17.67120 13.30573 33002 ft 493 kts 164°
2026-05-08 13:59 17.60556 13.32684 33001 ft 494 kts 164°
2026-05-08 13:59 17.53988 13.34796 33000 ft 494 kts 164°
2026-05-08 14:00 17.47423 13.36907 33001 ft 494 kts 164°
2026-05-08 14:00 17.40902 13.39009 33002 ft 493 kts 164°
2026-05-08 14:01 17.34341 13.41124 33001 ft 494 kts 164°
2026-05-08 14:01 17.27777 13.43238 33001 ft 494 kts 164°
2026-05-08 14:02 17.21211 13.45350 33000 ft 493 kts 164°
2026-05-08 14:02 17.14692 13.47446 33002 ft 493 kts 164°
2026-05-08 14:03 17.08132 13.49553 33001 ft 493 kts 164°
2026-05-08 14:03 17.01567 13.51660 33001 ft 493 kts 164°
2026-05-08 14:04 16.95011 13.53763 33002 ft 493 kts 164°
2026-05-08 14:04 16.88491 13.55853 33001 ft 493 kts 164°
2026-05-08 14:05 16.81929 13.57955 33002 ft 493 kts 164°
2026-05-08 14:05 16.75369 13.60054 33002 ft 493 kts 164°
2026-05-08 14:06 16.68808 13.62153 33000 ft 493 kts 164°
2026-05-08 14:06 16.62293 13.64236 33001 ft 493 kts 164°
2026-05-08 14:07 16.55738 13.66329 33002 ft 493 kts 164°
2026-05-08 14:07 16.49176 13.68416 33001 ft 493 kts 164°
2026-05-08 14:08 16.42618 13.70500 33000 ft 493 kts 164°
2026-05-08 14:08 16.36102 13.72569 33002 ft 493 kts 164°
2026-05-08 14:09 16.29543 13.74651 33002 ft 493 kts 164°
2026-05-08 14:09 16.22987 13.76732 33001 ft 493 kts 164°
2026-05-08 14:10 16.16430 13.78811 33000 ft 493 kts 164°
2026-05-08 14:10 16.09869 13.80890 33000 ft 493 kts 164°
2026-05-08 14:11 16.03356 13.82952 33004 ft 493 kts 164°
2026-05-08 14:11 15.96804 13.85025 33001 ft 493 kts 164°
2026-05-08 14:12 15.90242 13.87100 33001 ft 493 kts 164°
2026-05-08 14:12 15.83686 13.89172 33004 ft 493 kts 164°
2026-05-08 14:13 15.77167 13.91230 33000 ft 493 kts 164°
2026-05-08 14:13 15.70611 13.93299 33002 ft 493 kts 164°
2026-05-08 14:14 15.64049 13.95368 33001 ft 493 kts 164°
2026-05-08 14:14 15.57491 13.97435 33002 ft 493 kts 164°
2026-05-08 14:15 15.50975 13.99487 33002 ft 493 kts 164°
2026-05-08 14:15 15.44480 14.01532 33002 ft 493 kts 164°
2026-05-08 14:16 15.37920 14.03594 33003 ft 493 kts 164°
2026-05-08 14:16 15.31361 14.05656 33004 ft 493 kts 164°
2026-05-08 14:17 15.24797 14.07718 33003 ft 493 kts 164°
2026-05-08 14:17 15.18279 14.09764 32999 ft 493 kts 164°
2026-05-08 14:18 15.11718 14.11822 33001 ft 493 kts 164°
2026-05-08 14:18 15.05152 14.13880 33000 ft 493 kts 164°
2026-05-08 14:19 14.98601 14.15933 33002 ft 493 kts 164°
2026-05-08 14:19 14.92083 14.17974 33004 ft 493 kts 164°
2026-05-08 14:20 14.85516 14.20029 33000 ft 493 kts 164°
2026-05-08 14:20 14.78953 14.22081 33002 ft 493 kts 164°
2026-05-08 14:21 14.72393 14.24131 33002 ft 493 kts 164°
2026-05-08 14:21 14.65877 14.26166 33001 ft 493 kts 164°
2026-05-08 14:22 14.59318 14.28213 33002 ft 493 kts 164°
2026-05-08 14:22 14.52756 14.30261 33000 ft 493 kts 164°
2026-05-08 14:23 14.46239 14.32293 33002 ft 493 kts 164°
2026-05-08 14:23 14.39679 14.34337 33001 ft 493 kts 164°
2026-05-08 14:24 14.33117 14.36377 33002 ft 493 kts 164°
2026-05-08 14:24 14.26555 14.38416 33002 ft 493 kts 164°
2026-05-08 14:25 14.19993 14.40454 33000 ft 493 kts 164°
2026-05-08 14:25 14.13474 14.42478 33001 ft 493 kts 164°
2026-05-08 14:26 14.06912 14.44514 33002 ft 492 kts 164°
2026-05-08 14:26 14.00351 14.46549 33001 ft 492 kts 164°
2026-05-08 14:27 13.93811 14.48576 33002 ft 492 kts 164°
2026-05-08 14:27 13.87297 14.50594 33002 ft 492 kts 164°
2026-05-08 14:28 13.80732 14.52626 33001 ft 492 kts 164°
2026-05-08 14:28 13.74171 14.54656 33000 ft 492 kts 164°
2026-05-08 14:29 13.67608 14.56685 33001 ft 492 kts 164°
2026-05-08 14:29 13.61047 14.58712 33002 ft 492 kts 164°
2026-05-08 14:30 13.54531 14.60725 33002 ft 492 kts 164°
2026-05-08 14:30 13.47964 14.62752 33001 ft 492 kts 164°
2026-05-08 14:31 13.41405 14.64775 33001 ft 492 kts 164°
2026-05-08 14:31 13.34842 14.66799 33000 ft 492 kts 164°
2026-05-08 14:32 13.25046 14.69817 33000 ft 492 kts 164°
2026-05-08 14:32 13.18483 14.71838 33002 ft 492 kts 164°
2026-05-08 14:33 13.11920 14.73857 33001 ft 492 kts 164°
2026-05-08 14:33 13.05404 14.75861 33002 ft 492 kts 164°
2026-05-08 14:34 12.98862 14.77872 33001 ft 492 kts 164°
2026-05-08 14:34 12.92302 14.79887 33002 ft 492 kts 164°
2026-05-08 14:35 12.85739 14.81902 33002 ft 492 kts 164°
2026-05-08 14:35 12.79217 14.83904 33001 ft 492 kts 164°
2026-05-08 14:36 12.72655 14.85916 33000 ft 492 kts 164°
2026-05-08 14:36 12.66088 14.87929 33001 ft 492 kts 164°
2026-05-08 14:37 12.59523 14.89941 33001 ft 492 kts 164°
2026-05-08 14:37 12.52960 14.91951 33001 ft 492 kts 164°
2026-05-08 14:38 12.46437 14.93947 33001 ft 492 kts 164°
2026-05-08 14:38 12.39871 14.95956 33002 ft 492 kts 164°
2026-05-08 14:39 12.33307 14.97963 33000 ft 492 kts 164°
2026-05-08 14:39 12.26781 14.99957 33002 ft 493 kts 164°
2026-05-08 14:40 12.20281 15.01943 33001 ft 492 kts 164°
2026-05-08 14:40 12.14186 15.05014 33012 ft 493 kts 142°
2026-05-08 14:41 12.11669 15.07400 33003 ft 495 kts 131°
2026-05-08 14:41 12.09623 15.10213 33014 ft 493 kts 124°
2026-05-08 14:41 12.05781 15.16050 33007 ft 497 kts 124°
2026-05-08 14:42 12.01924 15.21868 33005 ft 499 kts 125°
2026-05-08 14:42 11.97990 15.27701 33002 ft 500 kts 125°
2026-05-08 14:43 11.94026 15.33534 33001 ft 500 kts 125°
2026-05-08 14:43 11.90058 15.39364 33000 ft 499 kts 125°
2026-05-08 14:44 11.86102 15.45177 33000 ft 498 kts 125°
2026-05-08 14:44 11.82178 15.50943 33000 ft 497 kts 125°
2026-05-08 14:45 11.78236 15.56733 33000 ft 497 kts 125°
2026-05-08 14:45 11.74292 15.62522 33001 ft 496 kts 125°
2026-05-08 14:46 11.70349 15.68306 33001 ft 497 kts 125°
2026-05-08 14:46 11.66429 15.74052 33001 ft 497 kts 125°
2026-05-08 14:47 11.62481 15.79838 33002 ft 497 kts 125°
2026-05-08 14:47 11.58527 15.85627 33001 ft 498 kts 125°
2026-05-08 14:48 11.54595 15.91382 33000 ft 498 kts 125°
2026-05-08 14:48 11.50636 15.97174 33002 ft 498 kts 125°
2026-05-08 14:49 11.46715 16.02906 33001 ft 498 kts 125°
2026-05-08 14:49 11.42751 16.08697 33002 ft 498 kts 125°
2026-05-08 14:50 11.38788 16.14485 33001 ft 498 kts 125°
2026-05-08 14:50 11.34852 16.20229 33001 ft 498 kts 126°
2026-05-08 14:51 11.30887 16.26012 33000 ft 498 kts 126°
2026-05-08 14:51 11.26923 16.31791 33002 ft 498 kts 126°
2026-05-08 14:52 11.20973 16.40459 33001 ft 497 kts 126°
2026-05-08 14:53 11.17035 16.46191 33001 ft 497 kts 126°
2026-05-08 14:53 11.13065 16.51969 33001 ft 498 kts 126°
2026-05-08 14:54 11.09097 16.57738 33001 ft 498 kts 126°
2026-05-08 14:54 11.05126 16.63510 33000 ft 498 kts 126°
2026-05-08 14:55 11.01180 16.69243 33001 ft 498 kts 126°
2026-05-08 14:55 10.97223 16.74991 33002 ft 498 kts 126°
2026-05-08 14:56 10.93247 16.80761 33001 ft 498 kts 126°
2026-05-08 14:56 10.89272 16.86524 33001 ft 498 kts 126°
2026-05-08 14:57 10.85319 16.92255 33001 ft 498 kts 126°
2026-05-08 14:57 10.81343 16.98017 33001 ft 498 kts 126°
2026-05-08 14:58 10.77409 17.03718 33000 ft 498 kts 126°
2026-05-08 14:58 10.73429 17.09482 33001 ft 498 kts 126°
2026-05-08 14:59 10.69453 17.15182 33000 ft 498 kts 127°
2026-05-08 14:59 10.63100 17.23532 33001 ft 497 kts 129°
2026-05-08 15:00 10.58841 17.29069 33002 ft 497 kts 128°
2026-05-08 15:00 10.54634 17.34594 33001 ft 498 kts 128°
2026-05-08 15:01 10.50410 17.40168 33001 ft 498 kts 128°
2026-05-08 15:01 10.46187 17.45742 33002 ft 498 kts 128°
2026-05-08 15:02 10.41964 17.51308 33002 ft 498 kts 128°
2026-05-08 15:02 10.37764 17.56840 33002 ft 498 kts 128°
2026-05-08 15:03 10.33538 17.62404 33002 ft 498 kts 128°
2026-05-08 15:03 10.29308 17.67969 33002 ft 498 kts 128°
2026-05-08 15:04 10.25080 17.73530 33002 ft 498 kts 128°
2026-05-08 15:04 10.20847 17.79093 33001 ft 498 kts 128°
2026-05-08 15:05 10.16645 17.84614 33001 ft 498 kts 128°
2026-05-08 15:05 10.12411 17.90174 33002 ft 498 kts 128°
2026-05-08 15:06 10.08177 17.95732 33002 ft 498 kts 128°
2026-05-08 15:06 10.03985 18.01231 33002 ft 498 kts 128°
2026-05-08 15:07 9.99785 18.06738 33002 ft 498 kts 128°
2026-05-08 15:07 9.95549 18.12291 33001 ft 498 kts 128°
2026-05-08 15:08 9.92026 18.16907 33002 ft 498 kts 128°
2026-05-08 15:08 9.87070 18.23397 33001 ft 498 kts 128°
2026-05-08 15:09 9.82856 18.28911 33002 ft 498 kts 128°
2026-05-08 15:09 9.78615 18.34461 33001 ft 498 kts 128°
2026-05-08 15:10 9.74376 18.40004 33002 ft 498 kts 128°
2026-05-08 15:10 9.70129 18.45555 33001 ft 498 kts 128°
2026-05-08 15:11 9.66603 18.50161 33002 ft 498 kts 128°
2026-05-08 15:11 9.61668 18.56606 33001 ft 498 kts 128°
2026-05-08 15:12 9.57424 18.62146 33001 ft 498 kts 128°
2026-05-08 15:12 9.53173 18.67694 33001 ft 498 kts 128°
2026-05-08 15:13 9.49640 18.72302 33003 ft 498 kts 128°
2026-05-08 15:13 9.44693 18.78739 33001 ft 499 kts 128°
2026-05-08 15:14 9.40428 18.84277 33002 ft 498 kts 128°
2026-05-08 15:14 9.36884 18.88879 33001 ft 498 kts 128°
2026-05-08 15:15 9.32622 18.94413 33002 ft 498 kts 128°
2026-05-08 15:15 9.27717 19.00781 33002 ft 498 kts 128°
2026-05-08 15:16 9.23459 19.06305 33001 ft 498 kts 128°
2026-05-08 15:16 9.19918 19.10898 33002 ft 498 kts 128°
2026-05-08 15:17 9.15658 19.16421 33000 ft 498 kts 128°
2026-05-08 15:17 9.10707 19.22836 33001 ft 498 kts 128°
2026-05-08 15:18 9.07164 19.27425 33001 ft 498 kts 128°
2026-05-08 15:18 9.02902 19.32943 33001 ft 498 kts 128°
2026-05-08 15:19 8.98653 19.38443 33002 ft 498 kts 128°
2026-05-08 15:19 8.93695 19.44856 33001 ft 498 kts 128°
2026-05-08 15:20 8.90119 19.49481 33002 ft 498 kts 128°
2026-05-08 15:20 8.85880 19.54960 33001 ft 498 kts 128°
2026-05-08 15:21 8.81611 19.60477 33001 ft 498 kts 128°
2026-05-08 15:21 8.77342 19.65992 33002 ft 498 kts 129°
2026-05-08 15:22 8.73099 19.71469 33001 ft 498 kts 129°
2026-05-08 15:22 8.68831 19.76978 33001 ft 498 kts 129°
2026-05-08 15:23 8.64561 19.82490 33002 ft 498 kts 129°
2026-05-08 15:23 8.60289 19.88004 33002 ft 498 kts 129°
2026-05-08 15:24 8.56048 19.93477 33002 ft 498 kts 129°
2026-05-08 15:24 8.51759 19.99009 33302 ft 501 kts 129°
2026-05-08 15:25 8.49658 20.01718 33681 ft 499 kts 129°
2026-05-08 15:25 8.47524 20.04469 34068 ft 497 kts 129°
2026-05-08 15:25 8.45398 20.07210 34437 ft 494 kts 129°
2026-05-08 15:25 8.43279 20.09940 34784 ft 493 kts 129°
2026-05-08 15:26 8.41161 20.12669 34951 ft 495 kts 129°
2026-05-08 15:26 8.39033 20.15409 34980 ft 496 kts 129°
2026-05-08 15:26 8.34811 20.20846 35000 ft 493 kts 129°
2026-05-08 15:27 8.30586 20.26284 34997 ft 491 kts 129°
2026-05-08 15:27 8.26378 20.31700 34998 ft 490 kts 129°
2026-05-08 15:28 8.22172 20.37110 35000 ft 490 kts 129°
2026-05-08 15:28 8.17988 20.42489 35005 ft 491 kts 129°
2026-05-08 15:29 8.13766 20.47915 35006 ft 492 kts 129°
2026-05-08 15:29 8.09530 20.53358 35006 ft 494 kts 129°
2026-05-08 15:30 8.05284 20.58813 35003 ft 495 kts 129°
2026-05-08 15:30 8.01062 20.64234 35000 ft 495 kts 129°
2026-05-08 15:31 7.96872 20.69719 35004 ft 495 kts 127°
2026-05-08 15:31 7.92759 20.75291 35004 ft 495 kts 127°
2026-05-08 15:32 7.88651 20.80867 34999 ft 495 kts 127°
2026-05-08 15:32 7.84559 20.86390 34986 ft 495 kts 127°
2026-05-08 15:33 7.80430 20.91945 35007 ft 495 kts 127°
2026-05-08 15:33 7.76301 20.97496 34998 ft 495 kts 127°
2026-05-08 15:34 7.72214 21.02990 35000 ft 495 kts 127°
2026-05-08 15:34 7.68112 21.08503 35002 ft 495 kts 127°
2026-05-08 15:35 7.63978 21.14058 34999 ft 495 kts 127°
2026-05-08 15:35 7.59841 21.19614 35005 ft 496 kts 127°
2026-05-08 15:36 7.55702 21.25171 35003 ft 496 kts 127°
2026-05-08 15:36 7.51586 21.30696 35003 ft 496 kts 127°
2026-05-08 15:37 7.47440 21.36258 35004 ft 496 kts 127°
2026-05-08 15:37 7.43297 21.41815 35002 ft 496 kts 127°
2026-05-08 15:38 7.39152 21.47372 35001 ft 496 kts 127°
2026-05-08 15:38 7.35038 21.52887 34997 ft 496 kts 127°
2026-05-08 15:39 7.30898 21.58434 35004 ft 495 kts 127°
2026-05-08 15:39 7.26756 21.63981 35001 ft 495 kts 127°
2026-05-08 15:40 7.22619 21.69523 35002 ft 495 kts 127°
2026-05-08 15:40 7.18508 21.75023 35002 ft 495 kts 127°
2026-05-08 15:41 7.14362 21.80560 35001 ft 495 kts 128°
2026-05-08 15:41 7.10216 21.86092 35001 ft 495 kts 128°
2026-05-08 15:42 7.06071 21.91625 34996 ft 495 kts 128°
2026-05-08 15:42 7.01950 21.97124 34999 ft 495 kts 128°
2026-05-08 15:43 6.97856 22.02587 35003 ft 495 kts 128°
2026-05-08 15:43 6.93706 22.08123 35000 ft 495 kts 128°
2026-05-08 15:44 6.89554 22.13658 34998 ft 495 kts 128°
2026-05-08 15:44 6.85405 22.19188 35003 ft 495 kts 128°
2026-05-08 15:45 6.81281 22.24686 35003 ft 495 kts 128°
2026-05-08 15:45 6.77133 22.30214 35002 ft 495 kts 128°
2026-05-08 15:46 6.72985 22.35742 35002 ft 495 kts 128°
2026-05-08 15:46 6.68835 22.41271 35003 ft 495 kts 128°
2026-05-08 15:47 6.64713 22.46760 35003 ft 495 kts 128°
2026-05-08 15:47 6.60563 22.52284 35004 ft 495 kts 128°
2026-05-08 15:48 6.54332 22.60576 35001 ft 495 kts 128°
2026-05-08 15:49 6.50207 22.66062 35004 ft 495 kts 128°
2026-05-08 15:49 6.46053 22.71586 35001 ft 495 kts 128°
2026-05-08 15:50 6.41896 22.77113 35000 ft 495 kts 128°
2026-05-08 15:50 6.37737 22.82640 34994 ft 496 kts 128°
2026-05-08 15:51 6.33579 22.88164 34997 ft 496 kts 128°
2026-05-08 15:51 6.29445 22.93655 35005 ft 496 kts 128°
2026-05-08 15:52 6.25284 22.99179 35004 ft 496 kts 128°
2026-05-08 15:52 6.21163 23.04649 35002 ft 496 kts 128°
2026-05-08 15:53 6.17000 23.10173 35004 ft 496 kts 128°
2026-05-08 15:53 6.12865 23.15659 35001 ft 496 kts 128°
2026-05-08 15:54 6.08703 23.21178 35004 ft 495 kts 128°
2026-05-08 15:54 6.04542 23.26695 34998 ft 495 kts 128°
2026-05-08 15:55 6.00412 23.32170 35003 ft 495 kts 128°
2026-05-08 15:55 5.94185 23.40420 34995 ft 495 kts 128°
2026-05-08 15:56 5.90029 23.45924 35002 ft 495 kts 128°
2026-05-08 15:56 5.85871 23.51431 35002 ft 494 kts 128°
2026-05-08 15:57 5.81744 23.56895 35002 ft 495 kts 128°
2026-05-08 15:57 5.77585 23.62399 35001 ft 495 kts 128°
2026-05-08 15:58 5.73428 23.67900 35001 ft 495 kts 128°
2026-05-08 15:58 5.69265 23.73409 35001 ft 495 kts 128°
2026-05-08 15:59 5.65138 23.78877 35003 ft 495 kts 127°
2026-05-08 15:59 5.61029 23.84425 35000 ft 495 kts 127°
2026-05-08 16:00 5.56935 23.89986 34998 ft 495 kts 127°
2026-05-08 16:00 5.52837 23.95539 34998 ft 495 kts 127°
2026-05-08 16:01 5.48799 24.00999 35005 ft 495 kts 127°
2026-05-08 16:01 5.44693 24.06547 35003 ft 495 kts 127°
2026-05-08 16:02 5.40584 24.12099 35001 ft 495 kts 127°
2026-05-08 16:02 5.36475 24.17650 35001 ft 495 kts 127°
2026-05-08 16:03 5.32370 24.23195 35003 ft 495 kts 127°
2026-05-08 16:03 5.28289 24.28705 35001 ft 495 kts 127°
2026-05-08 16:04 5.24183 24.34248 35004 ft 495 kts 127°
2026-05-08 16:04 5.20074 24.39795 35003 ft 495 kts 127°
2026-05-08 16:05 5.15966 24.45339 35004 ft 495 kts 127°
2026-05-08 16:05 5.11883 24.50844 35003 ft 495 kts 127°
2026-05-08 16:06 5.07772 24.56387 34997 ft 495 kts 127°
2026-05-08 16:06 5.03660 24.61931 35004 ft 495 kts 127°
2026-05-08 16:07 4.99562 24.67457 34999 ft 495 kts 127°
2026-05-08 16:07 4.95482 24.72958 35005 ft 495 kts 127°
2026-05-08 16:08 4.91370 24.78497 35001 ft 495 kts 127°
2026-05-08 16:08 4.87257 24.84036 35004 ft 495 kts 127°
2026-05-08 16:09 4.83148 24.89572 34997 ft 495 kts 127°
2026-05-08 16:09 4.79063 24.95074 34999 ft 495 kts 127°
2026-05-08 16:10 4.74994 25.00554 35001 ft 495 kts 127°
2026-05-08 16:10 4.70882 25.06091 35002 ft 495 kts 127°
2026-05-08 16:11 4.66771 25.11625 34998 ft 495 kts 127°
2026-05-08 16:11 4.62658 25.17163 35002 ft 495 kts 127°
2026-05-08 16:12 4.58571 25.22661 35000 ft 495 kts 127°
2026-05-08 16:12 4.54453 25.28197 35002 ft 495 kts 127°
2026-05-08 16:13 4.50333 25.33736 35002 ft 496 kts 127°
2026-05-08 16:13 4.46213 25.39276 35000 ft 496 kts 127°
2026-05-08 16:14 4.42123 25.44775 34998 ft 496 kts 127°
2026-05-08 16:14 4.38003 25.50313 35000 ft 496 kts 127°
2026-05-08 16:15 4.33881 25.55853 35001 ft 496 kts 127°
2026-05-08 16:15 4.29764 25.61385 35001 ft 495 kts 127°
2026-05-08 16:16 4.25671 25.66883 35001 ft 495 kts 127°
2026-05-08 16:16 4.21549 25.72419 35003 ft 495 kts 127°
2026-05-08 16:17 4.18127 25.77014 35003 ft 495 kts 127°
2026-05-08 16:17 4.13312 25.83479 35004 ft 495 kts 127°
2026-05-08 16:18 4.09221 25.88970 35005 ft 495 kts 127°
2026-05-08 16:18 4.05102 25.94497 35000 ft 495 kts 127°
2026-05-08 16:19 4.00987 26.00018 34999 ft 495 kts 127°
2026-05-08 16:19 3.96915 26.05480 34998 ft 495 kts 127°
2026-05-08 16:20 3.92820 26.10974 35002 ft 495 kts 127°
2026-05-08 16:20 3.88697 26.16501 35001 ft 495 kts 127°
2026-05-08 16:21 3.84573 26.22031 35005 ft 495 kts 127°
2026-05-08 16:21 3.80450 26.27559 35003 ft 495 kts 127°
2026-05-08 16:22 3.76326 26.33085 35002 ft 495 kts 127°
2026-05-08 16:22 3.72226 26.38579 35002 ft 496 kts 127°
2026-05-08 16:23 3.68101 26.44105 35005 ft 496 kts 127°
2026-05-08 16:23 3.63974 26.49634 34998 ft 496 kts 127°
2026-05-08 16:24 3.59848 26.55160 35004 ft 496 kts 127°
2026-05-08 16:24 3.55748 26.60651 35000 ft 496 kts 127°
2026-05-08 16:25 3.51618 26.66180 35004 ft 496 kts 127°
2026-05-08 16:25 3.47489 26.71707 35005 ft 496 kts 127°
2026-05-08 16:26 3.43361 26.77232 35004 ft 496 kts 127°
2026-05-08 16:26 3.39259 26.82721 34998 ft 496 kts 127°
2026-05-08 16:27 3.35127 26.88250 35001 ft 496 kts 127°
2026-05-08 16:27 3.30997 26.93774 34997 ft 496 kts 127°
2026-05-08 16:28 3.26864 26.99303 35004 ft 496 kts 127°
2026-05-08 16:28 3.22802 27.04735 34998 ft 496 kts 127°
2026-05-08 16:29 3.18669 27.10261 35004 ft 496 kts 127°
2026-05-08 16:29 3.14535 27.15788 35001 ft 496 kts 127°
2026-05-08 16:30 3.10402 27.21313 34999 ft 496 kts 127°
2026-05-08 16:30 3.06296 27.26802 34999 ft 496 kts 127°
2026-05-08 16:31 3.02160 27.32329 35006 ft 496 kts 127°
2026-05-08 16:31 2.98027 27.37852 34996 ft 496 kts 127°
2026-05-08 16:32 2.93917 27.43344 35004 ft 496 kts 127°
2026-05-08 16:32 2.89778 27.48873 34999 ft 496 kts 127°
2026-05-08 16:33 2.85640 27.54402 35001 ft 496 kts 127°
2026-05-08 16:33 2.81580 27.59989 34986 ft 497 kts 123°
2026-05-08 16:34 2.78391 27.66049 35008 ft 496 kts 115°
2026-05-08 16:34 2.75474 27.72315 35007 ft 497 kts 115°
2026-05-08 16:35 2.72532 27.78570 35005 ft 497 kts 116°
2026-05-08 16:35 2.69576 27.84776 35002 ft 497 kts 116°
2026-05-08 16:36 2.66593 27.91018 34998 ft 498 kts 116°
2026-05-08 16:36 2.63610 27.97263 35005 ft 498 kts 116°
2026-05-08 16:37 2.60654 28.03453 35000 ft 498 kts 116°
2026-05-08 16:37 2.57672 28.09700 35001 ft 498 kts 116°
2026-05-08 16:38 2.54708 28.15907 35001 ft 498 kts 116°
2026-05-08 16:38 2.51725 28.22153 35002 ft 498 kts 116°
2026-05-08 16:39 2.48764 28.28408 35000 ft 498 kts 115°
2026-05-08 16:39 2.45816 28.34673 34999 ft 498 kts 115°
2026-05-08 16:40 2.42888 28.40896 35002 ft 498 kts 115°
2026-05-08 16:40 2.39937 28.47158 34996 ft 498 kts 116°
2026-05-08 16:41 2.36985 28.53417 35001 ft 498 kts 116°
2026-05-08 16:42 2.32575 28.62766 35002 ft 498 kts 116°
2026-05-08 16:42 2.29623 28.69026 35002 ft 498 kts 116°
2026-05-08 16:43 2.26667 28.75291 35002 ft 498 kts 116°
2026-05-08 16:43 2.23711 28.81555 35003 ft 498 kts 116°
2026-05-08 16:44 2.20775 28.87776 35001 ft 498 kts 116°
2026-05-08 16:44 2.17817 28.94045 35003 ft 499 kts 116°
2026-05-08 16:45 2.14885 29.00257 34998 ft 499 kts 116°
2026-05-08 16:45 2.11923 29.06530 35002 ft 499 kts 116°
2026-05-08 16:46 2.08982 29.12761 35003 ft 499 kts 116°
2026-05-08 16:46 2.06019 29.19036 35002 ft 499 kts 116°
2026-05-08 16:47 2.03057 29.25309 35002 ft 499 kts 116°
2026-05-08 16:47 2.00095 29.31581 35000 ft 499 kts 116°
2026-05-08 16:48 1.97156 29.37805 35004 ft 499 kts 116°
2026-05-08 16:48 1.94192 29.44080 35002 ft 499 kts 116°
2026-05-08 16:49 1.91219 29.50346 35001 ft 499 kts 116°
2026-05-08 16:49 1.88154 29.56573 35001 ft 499 kts 117°
2026-05-08 16:50 1.85094 29.62746 34994 ft 499 kts 117°
2026-05-08 16:50 1.82027 29.68972 35002 ft 499 kts 116°
2026-05-08 16:51 1.78964 29.75204 35002 ft 500 kts 116°
2026-05-08 16:51 1.75912 29.81447 35001 ft 500 kts 116°
2026-05-08 16:52 1.72993 29.87700 35002 ft 500 kts 115°
2026-05-08 16:52 1.70077 29.94013 35003 ft 500 kts 115°
2026-05-08 16:53 1.65701 30.03405 35003 ft 500 kts 115°
2026-05-08 16:53 1.62761 30.09701 34999 ft 500 kts 115°
2026-05-08 16:54 1.59841 30.15957 34998 ft 500 kts 115°
2026-05-08 16:54 1.56854 30.22237 35003 ft 500 kts 118°
2026-05-08 16:55 1.53108 30.28076 35009 ft 499 kts 126°
2026-05-08 16:55 1.49065 30.33731 35001 ft 501 kts 126°
2026-05-08 16:56 1.45072 30.39371 35005 ft 500 kts 126°
2026-05-08 16:56 1.41091 30.45057 34996 ft 498 kts 125°
2026-05-08 16:57 1.37130 30.50727 34986 ft 497 kts 126°
2026-05-08 16:57 1.33183 30.56373 34998 ft 495 kts 126°
2026-05-08 16:58 1.29269 30.61969 35003 ft 494 kts 126°
2026-05-08 16:58 1.25340 30.67601 35001 ft 494 kts 125°
2026-05-08 16:59 1.21470 30.73270 35003 ft 494 kts 124°
2026-05-08 16:59 1.17606 30.78964 35007 ft 496 kts 124°
2026-05-08 17:00 1.13747 30.84637 35002 ft 498 kts 125°
2026-05-08 17:00 1.09836 30.90373 35006 ft 500 kts 125°
2026-05-08 17:01 1.05910 30.96129 34999 ft 502 kts 125°
2026-05-08 17:01 1.02021 31.01832 35003 ft 502 kts 125°
2026-05-08 17:02 0.98120 31.07551 35000 ft 502 kts 125°
2026-05-08 17:02 0.94191 31.13312 35004 ft 501 kts 125°
2026-05-08 17:03 0.90270 31.19061 35002 ft 500 kts 125°
2026-05-08 17:03 0.86353 31.24804 35001 ft 500 kts 125°
2026-05-08 17:04 0.82463 31.30506 35001 ft 500 kts 125°
2026-05-08 17:04 0.78549 31.36245 35002 ft 500 kts 125°
2026-05-08 17:05 0.74637 31.41981 35002 ft 500 kts 125°
2026-05-08 17:05 0.70718 31.47727 35003 ft 500 kts 125°
2026-05-08 17:06 0.66799 31.53473 35002 ft 501 kts 125°
2026-05-08 17:06 0.62911 31.59187 35002 ft 501 kts 124°
2026-05-08 17:07 0.59003 31.64952 35002 ft 501 kts 124°
2026-05-08 17:07 0.55098 31.70716 34999 ft 501 kts 124°
2026-05-08 17:08 0.51217 31.76438 35001 ft 501 kts 124°
2026-05-08 17:08 0.47312 31.82197 35000 ft 501 kts 124°
2026-05-08 17:09 0.43406 31.87956 35004 ft 500 kts 124°
2026-05-08 17:09 0.39504 31.93710 35004 ft 500 kts 124°
2026-05-08 17:10 0.35631 31.99423 34997 ft 500 kts 124°
2026-05-08 17:10 0.31767 32.05116 35001 ft 500 kts 125°
2026-05-08 17:11 0.27847 32.10846 35005 ft 500 kts 125°
2026-05-08 17:11 0.23921 32.16576 35003 ft 500 kts 125°
2026-05-08 17:12 0.20024 32.22268 35001 ft 500 kts 125°
2026-05-08 17:12 0.16101 32.28005 35001 ft 500 kts 125°
2026-05-08 17:13 0.12179 32.33740 35001 ft 500 kts 125°
2026-05-08 17:13 0.08256 32.39476 35004 ft 500 kts 125°
2026-05-08 17:14 0.04120 32.44986 34997 ft 499 kts 133°
2026-05-08 17:14 -0.00808 32.49838 35005 ft 498 kts 137°
2026-05-08 17:15 -0.05828 32.54600 35000 ft 498 kts 137°
2026-05-08 17:15 -0.10827 32.59392 35000 ft 498 kts 136°
2026-05-08 17:16 -0.15775 32.64174 35005 ft 498 kts 136°
2026-05-08 17:16 -0.20753 32.68995 35003 ft 499 kts 136°
2026-05-08 17:17 -0.25735 32.73819 34999 ft 499 kts 136°
2026-05-08 17:17 -0.30717 32.78639 35001 ft 499 kts 136°
2026-05-08 17:18 -0.35666 32.83427 35002 ft 499 kts 136°
2026-05-08 17:18 -0.40652 32.88251 35004 ft 499 kts 136°
2026-05-08 17:19 -0.45634 32.93072 35002 ft 499 kts 136°
2026-05-08 17:19 -0.50616 32.97893 35001 ft 499 kts 136°
2026-05-08 17:20 -0.55516 33.02635 34997 ft 499 kts 136°
2026-05-08 17:20 -0.60498 33.07455 34997 ft 498 kts 136°
2026-05-08 17:21 -0.65476 33.12273 35004 ft 498 kts 136°
2026-05-08 17:21 -0.70454 33.17092 35004 ft 498 kts 136°
2026-05-08 17:22 -0.75406 33.21876 35001 ft 498 kts 136°
2026-05-08 17:22 -0.80398 33.26690 35004 ft 498 kts 136°
2026-05-08 17:23 -0.85384 33.31499 35004 ft 498 kts 136°
2026-05-08 17:23 -0.90371 33.36313 34997 ft 498 kts 136°
2026-05-08 17:24 -0.95324 33.41094 35002 ft 498 kts 136°
2026-05-08 17:24 -1.00303 33.45900 35002 ft 498 kts 136°
2026-05-08 17:25 -1.05284 33.50720 35004 ft 498 kts 136°
2026-05-08 17:25 -1.10260 33.55545 35004 ft 498 kts 136°
2026-05-08 17:26 -1.15205 33.60339 35002 ft 499 kts 136°
2026-05-08 17:26 -1.20182 33.65164 35003 ft 499 kts 136°
2026-05-08 17:27 -1.25160 33.69990 35002 ft 499 kts 136°
2026-05-08 17:27 -1.30137 33.74816 34997 ft 499 kts 136°
2026-05-08 17:28 -1.35081 33.79609 35002 ft 499 kts 136°
2026-05-08 17:28 -1.40057 33.84438 35001 ft 499 kts 136°
2026-05-08 17:29 -1.45035 33.89262 35002 ft 499 kts 137°
2026-05-08 17:29 -1.50033 33.94069 35002 ft 499 kts 137°
2026-05-08 17:30 -1.54999 33.98847 35001 ft 499 kts 137°
2026-05-08 17:30 -1.59945 34.03612 35009 ft 499 kts 136°
2026-05-08 17:31 -1.64930 34.08438 35006 ft 499 kts 136°
2026-05-08 17:31 -1.69914 34.13273 35002 ft 499 kts 136°
2026-05-08 17:32 -1.74868 34.18077 35006 ft 500 kts 136°
2026-05-08 17:32 -1.79859 34.22917 35008 ft 500 kts 136°
2026-05-08 17:33 -1.84857 34.27751 35006 ft 500 kts 137°
2026-05-08 17:33 -1.89867 34.32577 35004 ft 500 kts 137°
2026-05-08 17:34 -1.94844 34.37373 35005 ft 500 kts 136°
2026-05-08 17:34 -1.99853 34.42205 35002 ft 501 kts 136°
2026-05-08 17:35 -2.04850 34.47033 35005 ft 500 kts 136°
2026-05-08 17:35 -2.09848 34.51879 34986 ft 500 kts 136°
2026-05-08 17:36 -2.14840 34.56723 35005 ft 500 kts 136°
2026-05-08 17:36 -2.19799 34.61534 35003 ft 500 kts 136°
2026-05-08 17:37 -2.24790 34.66376 35001 ft 500 kts 136°
2026-05-08 17:37 -2.29779 34.71214 35002 ft 500 kts 136°
2026-05-08 17:38 -2.34770 34.76056 35000 ft 500 kts 136°
2026-05-08 17:38 -2.39729 34.80868 35008 ft 500 kts 136°
2026-05-08 17:39 -2.44726 34.85717 35007 ft 501 kts 136°
2026-05-08 17:39 -2.49729 34.90571 35004 ft 501 kts 136°
2026-05-08 17:40 -2.54738 34.95433 35005 ft 502 kts 136°
2026-05-08 17:40 -2.59669 35.00219 35003 ft 503 kts 136°
2026-05-08 17:41 -2.64685 35.05090 34998 ft 503 kts 136°
2026-05-08 17:41 -2.69709 35.09967 35004 ft 503 kts 136°
2026-05-08 17:42 -2.74735 35.14848 35001 ft 504 kts 136°
2026-05-08 17:42 -2.79724 35.19693 35002 ft 503 kts 136°
2026-05-08 17:43 -2.84749 35.24574 35004 ft 503 kts 136°
2026-05-08 17:43 -2.89770 35.29452 34998 ft 503 kts 136°
2026-05-08 17:44 -2.94781 35.34321 35002 ft 502 kts 136°
2026-05-08 17:44 -2.99754 35.39154 34997 ft 501 kts 136°
2026-05-08 17:45 -3.04747 35.44005 35003 ft 500 kts 136°
2026-05-08 17:45 -3.09748 35.48847 34985 ft 500 kts 136°
2026-05-08 17:46 -3.14754 35.53692 35005 ft 501 kts 136°
2026-05-08 17:46 -3.19736 35.58517 35007 ft 502 kts 136°
2026-05-08 17:47 -3.24761 35.63386 34986 ft 504 kts 136°
2026-05-08 17:47 -3.28947 35.67443 35008 ft 504 kts 136°
2026-05-08 17:48 -3.34835 35.73151 35005 ft 504 kts 136°
2026-05-08 17:48 -3.39829 35.77992 34998 ft 502 kts 136°
2026-05-08 17:49 -3.44836 35.82848 35000 ft 500 kts 136°
2026-05-08 17:49 -3.49819 35.87682 35005 ft 497 kts 136°
2026-05-08 17:50 -3.54778 35.92491 35005 ft 496 kts 136°
2026-05-08 17:50 -3.59682 35.97268 35001 ft 495 kts 136°
2026-05-08 17:51 -3.64550 36.02028 34999 ft 495 kts 136°
2026-05-08 17:51 -3.69494 36.06831 35003 ft 496 kts 137°
2026-05-08 17:52 -3.74629 36.11457 35006 ft 497 kts 139°
2026-05-08 17:53 -3.82367 36.18330 35004 ft 499 kts 139°
2026-05-08 17:53 -3.87535 36.22985 34998 ft 500 kts 139°
2026-05-08 17:54 -3.92708 36.27652 34998 ft 501 kts 139°
2026-05-08 17:54 -3.97849 36.32369 35003 ft 501 kts 136°
2026-05-08 17:55 -4.02793 36.37283 35002 ft 502 kts 135°
2026-05-08 17:55 -4.07684 36.42207 35006 ft 502 kts 136°
2026-05-08 17:56 -4.12640 36.47139 35004 ft 502 kts 136°
2026-05-08 17:56 -4.17607 36.52049 34998 ft 502 kts 136°
2026-05-08 17:57 -4.22581 36.56963 35000 ft 502 kts 136°
2026-05-08 17:57 -4.27509 36.61836 34997 ft 501 kts 136°
2026-05-08 17:58 -4.32470 36.66745 35003 ft 501 kts 136°
2026-05-08 17:58 -4.37423 36.71647 35004 ft 500 kts 136°
2026-05-08 17:59 -4.42368 36.76542 35001 ft 499 kts 136°
2026-05-08 17:59 -4.47278 36.81404 35001 ft 499 kts 136°
2026-05-08 18:00 -4.52220 36.86293 35001 ft 499 kts 136°
2026-05-08 18:00 -4.59646 36.93602 35003 ft 499 kts 136°
2026-05-08 18:01 -4.64594 36.98472 35002 ft 498 kts 136°
2026-05-08 18:01 -4.69448 37.03254 35003 ft 498 kts 136°
2026-05-08 18:02 -4.73555 37.07303 34996 ft 498 kts 136°
2026-05-08 18:02 -4.79326 37.12993 35003 ft 498 kts 136°
2026-05-08 18:03 -4.84260 37.17859 34997 ft 498 kts 136°
2026-05-08 18:03 -4.89161 37.22693 35003 ft 497 kts 136°
2026-05-08 18:04 -4.94095 37.27560 35001 ft 497 kts 136°
2026-05-08 18:04 -4.99023 37.32423 35005 ft 497 kts 136°
2026-05-08 18:05 -5.03953 37.37289 35004 ft 497 kts 136°
2026-05-08 18:05 -5.08853 37.42126 35005 ft 498 kts 136°
2026-05-08 18:06 -5.13787 37.46998 35004 ft 498 kts 136°
2026-05-08 18:06 -5.18724 37.51875 35003 ft 498 kts 136°
2026-05-08 18:07 -5.23664 37.56755 35001 ft 498 kts 136°
2026-05-08 18:07 -5.28570 37.61603 35005 ft 498 kts 136°
2026-05-08 18:08 -5.33505 37.66481 34998 ft 498 kts 136°
2026-05-08 18:08 -5.38438 37.71357 35002 ft 498 kts 136°
2026-05-08 18:09 -5.43367 37.76232 34987 ft 497 kts 136°
2026-05-08 18:09 -5.48255 37.81067 35002 ft 497 kts 136°
2026-05-08 18:10 -5.53172 37.85932 35005 ft 496 kts 136°
2026-05-08 18:10 -5.58082 37.90791 35004 ft 495 kts 136°
2026-05-08 18:11 -5.62987 37.95647 35000 ft 495 kts 136°
2026-05-08 18:11 -5.67805 38.00418 35004 ft 495 kts 136°
2026-05-08 18:12 -5.72712 38.05262 35005 ft 495 kts 136°
2026-05-08 18:12 -5.77635 38.10090 35002 ft 494 kts 136°
2026-05-08 18:13 -5.82555 38.14916 35000 ft 494 kts 136°
2026-05-08 18:13 -5.87464 38.19739 35003 ft 494 kts 136°
2026-05-08 18:14 -5.92341 38.24535 34997 ft 494 kts 136°
2026-05-08 18:14 -5.97245 38.29358 34997 ft 493 kts 136°
2026-05-08 18:15 -6.02143 38.34175 35002 ft 493 kts 136°
2026-05-08 18:15 -6.07041 38.38995 35004 ft 493 kts 136°
2026-05-08 18:16 -6.11902 38.43780 35003 ft 493 kts 136°
2026-05-08 18:16 -6.16798 38.48600 34997 ft 492 kts 136°
2026-05-08 18:17 -6.21699 38.53410 35002 ft 492 kts 136°
2026-05-08 18:17 -6.26600 38.58207 35003 ft 492 kts 136°
2026-05-08 18:18 -6.31464 38.62973 35002 ft 491 kts 136°
2026-05-08 18:18 -6.36353 38.67767 35001 ft 491 kts 136°
2026-05-08 18:19 -6.41240 38.72562 35003 ft 491 kts 136°
2026-05-08 18:19 -6.46123 38.77355 34999 ft 491 kts 136°
2026-05-08 18:20 -6.51007 38.82149 34994 ft 490 kts 136°
2026-05-08 18:20 -6.55854 38.86907 35000 ft 490 kts 136°
2026-05-08 18:21 -6.60738 38.91705 34998 ft 491 kts 136°
2026-05-08 18:21 -6.65621 38.96503 35001 ft 491 kts 136°
2026-05-08 18:22 -6.70454 39.01253 35002 ft 491 kts 136°
2026-05-08 18:22 -6.75311 39.06028 35003 ft 492 kts 136°
2026-05-08 18:23 -6.80204 39.10840 35001 ft 492 kts 136°
2026-05-08 18:23 -6.85098 39.15656 35004 ft 492 kts 136°
2026-05-08 18:24 -6.89898 39.20561 35003 ft 492 kts 131°
2026-05-08 18:24 -6.94173 39.25878 35004 ft 492 kts 129°
2026-05-08 18:25 -6.98425 39.31278 35004 ft 492 kts 129°
2026-05-08 18:25 -7.02689 39.36655 35001 ft 492 kts 129°
2026-05-08 18:26 -7.06978 39.42026 35002 ft 492 kts 129°
2026-05-08 18:26 -7.11241 39.47356 35002 ft 492 kts 129°
2026-05-08 18:27 -7.14111 39.50946 35001 ft 492 kts 129°
2026-05-08 18:27 -7.19817 39.58089 34997 ft 492 kts 129°
2026-05-08 18:28 -7.24101 39.63455 34997 ft 491 kts 129°
2026-05-08 18:28 -7.28353 39.68783 35002 ft 491 kts 129°
2026-05-08 18:29 -7.32635 39.74151 35004 ft 491 kts 129°
2026-05-08 18:29 -7.36916 39.79518 34998 ft 491 kts 129°
2026-05-08 18:30 -7.41197 39.84888 35002 ft 491 kts 129°
2026-05-08 18:30 -7.45447 39.90220 35002 ft 491 kts 129°
2026-05-08 18:31 -7.49725 39.95590 35001 ft 491 kts 129°
2026-05-08 18:31 -7.53962 40.00910 35004 ft 492 kts 129°
2026-05-08 18:32 -7.58239 40.06283 34998 ft 492 kts 129°
2026-05-08 18:32 -7.62490 40.11624 34998 ft 492 kts 129°
2026-05-08 18:33 -7.66769 40.17003 35002 ft 492 kts 129°
2026-05-08 18:33 -7.71046 40.22381 35000 ft 492 kts 129°
2026-05-08 18:34 -7.75322 40.27760 35004 ft 492 kts 129°
2026-05-08 18:34 -7.79572 40.33107 35003 ft 492 kts 129°
2026-05-08 18:35 -7.83848 40.38490 35004 ft 492 kts 129°
2026-05-08 18:35 -7.88123 40.43874 35003 ft 492 kts 129°
2026-05-08 18:36 -7.92396 40.49258 34997 ft 492 kts 129°
2026-05-08 18:36 -7.96596 40.54643 35004 ft 492 kts 128°
2026-05-08 18:37 -8.00756 40.60116 34997 ft 492 kts 128°
2026-05-08 18:37 -8.04923 40.65594 34997 ft 492 kts 128°
2026-05-08 18:38 -8.09096 40.71059 35004 ft 492 kts 128°
2026-05-08 18:38 -8.13244 40.76488 35000 ft 492 kts 128°
2026-05-08 18:39 -8.17420 40.81958 34998 ft 492 kts 128°
2026-05-08 18:39 -8.21643 40.87387 35001 ft 492 kts 130°
2026-05-08 18:40 -8.25255 40.91815 35003 ft 492 kts 130°
2026-05-08 18:40 -8.30319 40.97996 35001 ft 492 kts 130°
2026-05-08 18:41 -8.33917 41.02421 35002 ft 492 kts 130°
2026-05-08 18:41 -8.38215 41.07730 35002 ft 492 kts 130°
2026-05-08 18:42 -8.42541 41.13080 35004 ft 492 kts 130°
2026-05-08 18:42 -8.46868 41.18431 35004 ft 492 kts 130°
2026-05-08 18:43 -8.51192 41.23779 34999 ft 492 kts 130°
2026-05-08 18:43 -8.56220 41.30000 34997 ft 492 kts 130°
2026-05-08 18:44 -8.59813 41.34448 35000 ft 492 kts 130°
2026-05-08 18:44 -8.64838 41.40671 34999 ft 492 kts 130°
2026-05-08 18:45 -8.68460 41.45159 34998 ft 492 kts 130°
2026-05-08 18:45 -8.72750 41.50480 35002 ft 492 kts 129°
2026-05-08 18:46 -8.77024 41.55879 35000 ft 492 kts 129°
2026-05-08 18:46 -8.81276 41.61292 35001 ft 492 kts 129°
2026-05-08 18:47 -8.85533 41.66708 35002 ft 492 kts 129°
2026-05-08 18:47 -8.89763 41.72082 34998 ft 492 kts 129°
2026-05-08 18:48 -8.94027 41.77496 35002 ft 492 kts 129°
2026-05-08 18:48 -8.98285 41.82906 35001 ft 492 kts 129°
2026-05-08 18:49 -9.02537 41.88310 35000 ft 492 kts 129°
2026-05-08 18:49 -9.06795 41.93725 35004 ft 492 kts 129°
2026-05-08 18:50 -9.11025 41.99106 34996 ft 492 kts 129°
2026-05-08 18:50 -9.15241 42.04472 34999 ft 492 kts 129°
2026-05-08 18:51 -9.19497 42.09890 35004 ft 492 kts 129°
2026-05-08 18:51 -9.23753 42.15312 35004 ft 492 kts 129°
2026-05-08 18:52 -9.27980 42.20698 35001 ft 492 kts 129°
2026-05-08 18:52 -9.32234 42.26121 35002 ft 492 kts 129°
2026-05-08 18:53 -9.36485 42.31543 34992 ft 492 kts 129°
2026-05-08 18:53 -9.40739 42.36972 35004 ft 492 kts 129°
2026-05-08 18:54 -9.44961 42.42361 35002 ft 492 kts 129°
2026-05-08 18:54 -9.49212 42.47790 35000 ft 492 kts 129°
2026-05-08 18:55 -9.55585 42.55934 35004 ft 492 kts 129°
2026-05-08 18:56 -9.59834 42.61367 35000 ft 492 kts 129°
2026-05-08 18:56 -9.64053 42.66763 35004 ft 492 kts 129°
2026-05-08 18:57 -9.68301 42.72200 34997 ft 492 kts 129°
2026-05-08 18:57 -9.72546 42.77635 35001 ft 492 kts 129°
2026-05-08 18:58 -9.76791 42.83072 35000 ft 492 kts 129°
2026-05-08 18:58 -9.81007 42.88474 35001 ft 492 kts 129°
2026-05-08 18:59 -9.85250 42.93915 35002 ft 492 kts 129°
2026-05-08 18:59 -9.89493 42.99357 35001 ft 492 kts 129°
2026-05-08 19:00 -9.93699 43.04754 35002 ft 492 kts 129°
2026-05-08 19:00 -9.97912 43.10163 35000 ft 492 kts 129°
2026-05-08 19:01 -10.02151 43.15608 35001 ft 492 kts 129°
2026-05-08 19:01 -10.06391 43.21056 35001 ft 492 kts 129°
2026-05-08 19:02 -10.10628 43.26504 34999 ft 492 kts 129°
2026-05-08 19:02 -10.14839 43.31921 35003 ft 492 kts 129°
2026-05-08 19:03 -10.19075 43.37372 35001 ft 492 kts 129°
2026-05-08 19:03 -10.23311 43.42827 35004 ft 492 kts 129°
2026-05-08 19:04 -10.27547 43.48283 35002 ft 492 kts 129°
2026-05-08 19:04 -10.31779 43.53738 35002 ft 492 kts 129°
2026-05-08 19:05 -10.35983 43.59160 35004 ft 492 kts 129°
2026-05-08 19:05 -10.40215 43.64620 35001 ft 492 kts 129°
2026-05-08 19:06 -10.44450 43.70082 34997 ft 492 kts 129°
2026-05-08 19:06 -10.48682 43.75542 34997 ft 492 kts 129°
2026-05-08 19:07 -10.52910 43.81003 34998 ft 492 kts 129°
2026-05-08 19:07 -10.57112 43.86433 35002 ft 492 kts 129°
2026-05-08 19:08 -10.61338 43.91899 34997 ft 492 kts 129°
2026-05-08 19:08 -10.65567 43.97368 34998 ft 492 kts 129°
2026-05-08 19:09 -10.69729 44.02755 34997 ft 492 kts 129°
2026-05-08 19:09 -10.73954 44.08227 35004 ft 492 kts 129°
2026-05-08 19:10 -10.78178 44.13700 35001 ft 492 kts 129°
2026-05-08 19:10 -10.82404 44.19178 35002 ft 492 kts 129°
2026-05-08 19:11 -10.86596 44.24616 35002 ft 492 kts 129°
2026-05-08 19:11 -10.90819 44.30095 35004 ft 492 kts 129°
2026-05-08 19:12 -10.95041 44.35574 35004 ft 492 kts 129°
2026-05-08 19:12 -10.99267 44.41052 35001 ft 492 kts 129°
2026-05-08 19:13 -11.03460 44.46491 34998 ft 492 kts 129°
2026-05-08 19:13 -11.07682 44.51972 35000 ft 492 kts 129°
2026-05-08 19:14 -11.11903 44.57456 35002 ft 492 kts 129°
2026-05-08 19:14 -11.16122 44.62941 35001 ft 492 kts 129°
2026-05-08 19:15 -11.20313 44.68392 35002 ft 492 kts 129°
2026-05-08 19:15 -11.24530 44.73879 35002 ft 492 kts 129°
2026-05-08 19:16 -11.28746 44.79368 34999 ft 492 kts 128°
2026-05-08 19:16 -11.32962 44.84859 35001 ft 492 kts 128°
2026-05-08 19:17 -11.37149 44.90316 35004 ft 492 kts 128°
2026-05-08 19:17 -11.41363 44.95812 35002 ft 492 kts 128°
2026-05-08 19:18 -11.45535 45.01255 35002 ft 492 kts 128°
2026-05-08 19:18 -11.49747 45.06753 35000 ft 492 kts 128°
2026-05-08 19:19 -11.53928 45.12214 35004 ft 492 kts 128°
2026-05-08 19:19 -11.58141 45.17719 34997 ft 492 kts 128°
2026-05-08 19:20 -11.62349 45.23222 35004 ft 492 kts 128°
2026-05-08 19:20 -11.66558 45.28728 35001 ft 492 kts 128°
2026-05-08 19:21 -11.70734 45.34195 34992 ft 492 kts 128°
2026-05-08 19:21 -11.74942 45.39706 35003 ft 492 kts 128°
2026-05-08 19:22 -11.79145 45.45214 35001 ft 492 kts 128°
2026-05-08 19:22 -11.83351 45.50729 34998 ft 492 kts 128°
2026-05-08 19:23 -11.87525 45.56204 35002 ft 492 kts 128°
2026-05-08 19:23 -11.91725 45.61718 35004 ft 492 kts 128°
2026-05-08 19:24 -11.95927 45.67237 34997 ft 492 kts 128°
2026-05-08 19:24 -12.00120 45.72747 35002 ft 492 kts 128°
2026-05-08 19:25 -12.04291 45.78231 35002 ft 492 kts 128°
2026-05-08 19:25 -12.08488 45.83753 35001 ft 492 kts 128°
2026-05-08 19:26 -12.12685 45.89279 34999 ft 492 kts 128°
2026-05-08 19:26 -12.16879 45.94803 35002 ft 492 kts 128°
2026-05-08 19:27 -12.21004 46.00240 34997 ft 492 kts 128°
2026-05-08 19:27 -12.25196 46.05769 35004 ft 492 kts 128°
2026-05-08 19:28 -12.29387 46.11300 35004 ft 492 kts 128°
2026-05-08 19:28 -12.33549 46.16793 35004 ft 492 kts 128°
2026-05-08 19:29 -12.37742 46.22331 35001 ft 492 kts 128°
2026-05-08 19:29 -12.41931 46.27868 35004 ft 492 kts 128°
2026-05-08 19:30 -12.46117 46.33405 35002 ft 492 kts 128°
2026-05-08 19:30 -12.50277 46.38912 34997 ft 492 kts 128°
2026-05-08 19:31 -12.54462 46.44454 35004 ft 492 kts 128°
2026-05-08 19:31 -12.58645 46.49999 35001 ft 492 kts 128°
2026-05-08 19:32 -12.62830 46.55548 35002 ft 492 kts 128°
2026-05-08 19:32 -12.66982 46.61057 34997 ft 492 kts 128°
2026-05-08 19:33 -12.71164 46.66609 35001 ft 492 kts 128°
2026-05-08 19:33 -12.75343 46.72160 35004 ft 492 kts 128°
2026-05-08 19:34 -12.79523 46.77717 35002 ft 492 kts 128°
2026-05-08 19:34 -12.83671 46.83234 35004 ft 492 kts 128°
2026-05-08 19:35 -12.87846 46.88791 35002 ft 492 kts 128°
2026-05-08 19:35 -12.92022 46.94351 35002 ft 492 kts 128°
2026-05-08 19:36 -12.96195 46.99912 35004 ft 492 kts 128°
2026-05-08 19:36 -13.00305 47.05392 34998 ft 492 kts 128°
2026-05-08 19:37 -13.04478 47.10960 35004 ft 492 kts 128°
2026-05-08 19:37 -13.08648 47.16526 35004 ft 492 kts 128°
2026-05-08 19:38 -13.12818 47.22096 35001 ft 492 kts 128°
2026-05-08 19:38 -13.16959 47.27631 35003 ft 492 kts 128°
2026-05-08 19:39 -13.21128 47.33207 35002 ft 492 kts 128°
2026-05-08 19:39 -13.25291 47.38779 34996 ft 492 kts 128°
2026-05-08 19:40 -13.29456 47.44357 35003 ft 492 kts 128°
2026-05-08 19:40 -13.33593 47.49901 34999 ft 492 kts 128°
2026-05-08 19:41 -13.37754 47.55480 35004 ft 492 kts 128°
2026-05-08 19:41 -13.41917 47.61066 34997 ft 492 kts 128°
2026-05-08 19:42 -13.46076 47.66649 35004 ft 492 kts 128°
2026-05-08 19:42 -13.50206 47.72199 35004 ft 492 kts 128°
2026-05-08 19:43 -13.54364 47.77789 35002 ft 492 kts 128°
2026-05-08 19:43 -13.58520 47.83380 35004 ft 492 kts 128°
2026-05-08 19:44 -13.62675 47.88973 35004 ft 492 kts 128°
2026-05-08 19:44 -13.66800 47.94531 35001 ft 492 kts 128°
2026-05-08 19:45 -13.70929 48.00096 34998 ft 493 kts 128°
2026-05-08 19:45 -13.75071 48.05682 35005 ft 493 kts 128°
2026-05-08 19:46 -13.79234 48.11301 35005 ft 494 kts 128°
2026-05-08 19:46 -13.85454 48.19707 35008 ft 495 kts 128°
2026-05-08 19:47 -13.89618 48.25339 34999 ft 495 kts 128°
2026-05-08 19:47 -13.93786 48.30981 35009 ft 495 kts 128°
2026-05-08 19:48 -13.97963 48.36638 35007 ft 497 kts 128°
2026-05-08 19:48 -14.02125 48.42279 34985 ft 500 kts 128°
2026-05-08 19:49 -14.06344 48.47999 35010 ft 503 kts 128°
2026-05-08 19:49 -14.10584 48.53754 35005 ft 505 kts 128°
2026-05-08 19:50 -14.14825 48.59514 34986 ft 504 kts 128°
2026-05-08 19:50 -14.19023 48.65220 34984 ft 502 kts 128°
2026-05-08 19:51 -14.23235 48.70948 35007 ft 501 kts 128°
2026-05-08 19:51 -14.27443 48.76675 34985 ft 501 kts 128°
2026-05-08 19:52 -14.31655 48.82411 35007 ft 503 kts 128°
2026-05-08 19:52 -14.35845 48.88121 35004 ft 502 kts 128°
2026-05-08 19:53 -14.40059 48.93869 34999 ft 502 kts 128°
2026-05-08 19:53 -14.44262 48.99604 35004 ft 501 kts 128°
2026-05-08 19:54 -14.48416 49.05279 35003 ft 500 kts 128°
2026-05-08 19:54 -14.52575 49.10963 34996 ft 500 kts 128°
2026-05-08 19:55 -14.56763 49.16690 34986 ft 500 kts 128°
2026-05-08 19:55 -14.60952 49.22423 35004 ft 501 kts 128°
2026-05-08 19:56 -14.65149 49.28171 35005 ft 502 kts 128°
2026-05-08 19:56 -14.69323 49.33892 35007 ft 502 kts 127°
2026-05-08 19:57 -14.73516 49.39645 34998 ft 501 kts 127°
2026-05-08 19:57 -14.77714 49.45406 35006 ft 502 kts 127°
2026-05-08 19:58 -14.81910 49.51170 35009 ft 501 kts 127°
2026-05-08 19:58 -14.86066 49.56884 34984 ft 500 kts 127°
2026-05-08 19:59 -14.90243 49.62629 35001 ft 499 kts 127°
2026-05-08 19:59 -14.94410 49.68367 35000 ft 498 kts 127°
2026-05-08 20:00 -14.98539 49.74057 35001 ft 497 kts 127°
2026-05-08 20:00 -15.02671 49.79752 34996 ft 495 kts 127°
2026-05-08 20:01 -15.06808 49.85455 35011 ft 495 kts 127°
2026-05-08 20:01 -15.10940 49.91156 35005 ft 495 kts 127°
2026-05-08 20:02 -15.15044 49.96825 35000 ft 495 kts 127°
2026-05-08 20:02 -15.19131 50.02476 35005 ft 495 kts 127°
2026-05-08 20:03 -15.23256 50.08182 35012 ft 495 kts 127°
2026-05-08 20:03 -15.27385 50.13898 35004 ft 496 kts 127°
2026-05-08 20:04 -15.31489 50.19585 35002 ft 496 kts 127°
2026-05-08 20:04 -15.35619 50.25311 35006 ft 496 kts 127°
2026-05-08 20:05 -15.39741 50.31031 35003 ft 495 kts 127°
2026-05-08 20:05 -15.43857 50.36745 35007 ft 494 kts 127°
2026-05-08 20:06 -15.47934 50.42412 35002 ft 493 kts 127°
2026-05-08 20:06 -15.52026 50.48102 35004 ft 492 kts 127°
2026-05-08 20:07 -15.56113 50.53790 34996 ft 491 kts 127°
2026-05-08 20:07 -15.60192 50.59471 35004 ft 491 kts 127°
2026-05-08 20:08 -15.64247 50.65123 35001 ft 491 kts 127°
2026-05-08 20:08 -15.68325 50.70812 34998 ft 491 kts 127°
2026-05-08 20:09 -15.72406 50.76508 35001 ft 492 kts 127°
2026-05-08 20:09 -15.76489 50.82212 35004 ft 492 kts 127°
2026-05-08 20:10 -15.80539 50.87875 35001 ft 492 kts 127°
2026-05-08 20:10 -15.84644 50.93618 35418 ft 495 kts 127°
2026-05-08 20:11 -15.86689 50.96481 35840 ft 492 kts 127°
2026-05-08 20:11 -15.88724 50.99332 36268 ft 490 kts 127°
2026-05-08 20:11 -15.90696 51.02095 36624 ft 489 kts 127°
2026-05-08 20:11 -15.92720 51.04931 36897 ft 489 kts 127°
2026-05-08 20:12 -15.96763 51.10600 36993 ft 493 kts 127°
2026-05-08 20:12 -16.00823 51.16298 36995 ft 489 kts 127°
2026-05-08 20:13 -16.04858 51.21967 37001 ft 487 kts 127°
2026-05-08 20:13 -16.08881 51.27621 37002 ft 486 kts 127°
2026-05-08 20:14 -16.12871 51.33234 37003 ft 486 kts 127°
2026-05-08 20:14 -16.16895 51.38898 37003 ft 487 kts 127°
2026-05-08 20:15 -16.20922 51.44573 37003 ft 488 kts 127°
2026-05-08 20:15 -16.24958 51.50264 37002 ft 489 kts 127°
2026-05-08 20:16 -16.28974 51.55931 37002 ft 490 kts 127°
2026-05-08 20:16 -16.33020 51.61645 37001 ft 491 kts 127°
2026-05-08 20:17 -16.37068 51.67365 37001 ft 491 kts 127°
2026-05-08 20:17 -16.41114 51.73089 37001 ft 491 kts 127°
2026-05-08 20:18 -16.45158 51.78814 37001 ft 490 kts 127°
2026-05-08 20:18 -16.49170 51.84498 37000 ft 490 kts 127°
2026-05-08 20:19 -16.53205 51.90220 37001 ft 490 kts 127°
2026-05-08 20:19 -16.57236 51.95940 37001 ft 489 kts 127°
2026-05-08 20:20 -16.61219 52.01597 37001 ft 489 kts 127°
2026-05-08 20:20 -16.65216 52.07278 37001 ft 489 kts 127°
2026-05-08 20:21 -16.69239 52.13000 37001 ft 489 kts 127°
2026-05-08 20:21 -16.73260 52.18726 37001 ft 489 kts 127°
2026-05-08 20:22 -16.77280 52.24454 37002 ft 489 kts 127°
2026-05-08 20:22 -16.81271 52.30147 37002 ft 489 kts 127°
2026-05-08 20:23 -16.85290 52.35881 37001 ft 489 kts 127°
2026-05-08 20:23 -16.89312 52.41621 37001 ft 490 kts 127°
2026-05-08 20:24 -16.93330 52.47357 37001 ft 490 kts 127°
2026-05-08 20:24 -16.97319 52.53061 37002 ft 490 kts 127°
2026-05-08 20:25 -17.01330 52.58800 37001 ft 490 kts 127°
2026-05-08 20:25 -17.05342 52.64546 37001 ft 490 kts 127°
2026-05-08 20:26 -17.12584 52.74930 37002 ft 490 kts 127°
2026-05-08 20:26 -17.21694 52.91520 37007 ft 490 kts 117°
2026-05-08 20:27 -17.33934 53.16660 37005 ft 490 kts 117°
2026-05-08 20:27 -17.46354 53.42115 37002 ft 491 kts 117°
2026-05-08 20:28 -17.58727 53.67576 37002 ft 491 kts 117°
2026-05-08 20:28 -17.70999 53.92933 37002 ft 491 kts 117°
2026-05-08 20:29 -17.83185 54.18211 37002 ft 491 kts 117°
2026-05-08 20:29 -17.95467 54.43793 37002 ft 491 kts 117°
2026-05-08 20:30 -18.07706 54.69391 37002 ft 491 kts 117°
2026-05-08 20:30 -18.19847 54.94890 37002 ft 491 kts 117°
2026-05-08 20:31 -18.31898 55.20305 37002 ft 491 kts 117°
2026-05-08 20:31 -18.44051 55.46047 37001 ft 491 kts 117°
2026-05-08 20:32 -18.48178 55.54722 36998 ft 490 kts 121°
2026-05-08 20:32 -18.50226 55.57570 36989 ft 485 kts 136°
2026-05-08 20:32 -18.52651 55.59971 37010 ft 485 kts 138°
2026-05-08 20:33 -18.57671 55.64739 37007 ft 487 kts 139°
2026-05-08 20:33 -18.95912 56.02648 37034 ft 494 kts 137°
2026-05-08 20:34 -19.04557 56.11270 36992 ft 494 kts 137°
2026-05-08 20:35 -19.11986 56.18700 36998 ft 491 kts 137°
2026-05-08 20:35 -19.14478 56.21195 36377 ft 498 kts 137°
2026-05-08 20:35 -19.16990 56.23711 35645 ft 496 kts 137°
2026-05-08 20:35 -19.23532 56.30271 33287 ft 497 kts 137°
2026-05-08 20:36 -19.33569 56.40348 29650 ft 494 kts 137°
2026-05-08 20:36 -19.43336 56.50174 26867 ft 475 kts 137°
2026-05-08 20:36 -19.52739 56.59646 24202 ft 457 kts 137°
2026-05-08 20:36 -19.61788 56.68779 21658 ft 441 kts 137°
2026-05-08 20:37 -19.67754 56.74808 19975 ft 431 kts 137°
2026-05-08 20:37 -19.75838 56.82987 17684 ft 419 kts 137°
2026-05-08 20:37 -19.81434 56.88657 16071 ft 411 kts 137°
2026-05-08 20:37 -19.83494 56.90745 15470 ft 408 kts 137°
2026-05-08 20:38 -19.85546 56.92827 14789 ft 408 kts 137°
2026-05-08 20:38 -19.87588 56.94898 14200 ft 405 kts 137°
2026-05-08 20:38 -19.89614 56.96955 13631 ft 401 kts 137°
2026-05-08 20:38 -19.91597 56.98968 13132 ft 397 kts 137°
2026-05-08 20:39 -19.93558 57.00960 12695 ft 390 kts 137°
2026-05-08 20:39 -19.95477 57.02910 12105 ft 386 kts 137°
2026-05-08 20:39 -19.97430 57.04895 11366 ft 389 kts 137°
2026-05-08 20:39 -19.99368 57.06865 10896 ft 382 kts 137°
2026-05-08 20:40 -20.01240 57.08770 10769 ft 367 kts 137°
2026-05-08 20:40 -20.03045 57.10608 10650 ft 352 kts 137°
2026-05-08 20:40 -20.04780 57.12376 10560 ft 338 kts 137°
2026-05-08 20:40 -20.06445 57.14071 10472 ft 322 kts 137°
2026-05-08 20:41 -20.07985 57.15641 10261 ft 300 kts 137°
2026-05-08 20:41 -20.09450 57.17134 9950 ft 284 kts 137°
2026-05-08 20:41 -20.10829 57.18539 9711 ft 267 kts 137°
2026-05-08 20:41 -20.12147 57.19882 9407 ft 260 kts 137°
2026-05-08 20:42 -20.13491 57.21250 9154 ft 277 kts 137°
2026-05-08 20:42 -20.14914 57.22699 8819 ft 287 kts 137°
2026-05-08 20:42 -20.16360 57.24174 8490 ft 289 kts 137°
2026-05-08 20:42 -20.17808 57.25651 8142 ft 286 kts 137°
2026-05-08 20:43 -20.19218 57.27092 7781 ft 276 kts 137°
2026-05-08 20:43 -20.20503 57.28526 7467 ft 268 kts 129°
2026-05-08 20:43 -20.21585 57.30130 7192 ft 270 kts 125°
2026-05-08 20:43 -20.22651 57.31814 6889 ft 277 kts 125°
2026-05-08 20:44 -20.23741 57.33513 6564 ft 279 kts 126°
2026-05-08 20:44 -20.24847 57.35205 6245 ft 278 kts 126°
2026-05-08 20:44 -20.25941 57.36861 5977 ft 267 kts 126°
2026-05-08 20:44 -20.26992 57.38446 5872 ft 257 kts 126°
2026-05-08 20:45 -20.27998 57.39955 5726 ft 248 kts 127°
2026-05-08 20:45 -20.28670 57.40947 5653 ft 242 kts 127°
2026-05-08 20:45 -20.29955 57.42835 5364 ft 236 kts 127°
2026-05-08 20:45 -20.30910 57.44242 5101 ft 233 kts 127°
2026-05-08 20:46 -20.31848 57.45624 4881 ft 229 kts 127°
2026-05-08 20:46 -20.32731 57.47038 4574 ft 229 kts 122°
2026-05-08 20:46 -20.33494 57.48512 4294 ft 227 kts 118°
2026-05-08 20:46 -20.34204 57.49987 3987 ft 218 kts 118°
2026-05-08 20:47 -20.34863 57.51367 3713 ft 200 kts 118°
2026-05-08 20:47 -20.35473 57.52641 3432 ft 189 kts 118°
2026-05-08 20:47 -20.36077 57.53896 3206 ft 190 kts 118°
2026-05-08 20:47 -20.36662 57.55114 2982 ft 181 kts 118°
2026-05-08 20:48 -20.37213 57.56271 2836 ft 176 kts 118°
2026-05-08 20:48 -20.37775 57.57455 2560 ft 179 kts 118°
2026-05-08 20:48 -20.38303 57.58601 2271 ft 165 kts 118°
2026-05-08 20:48 -20.38814 57.59649 1984 ft 155 kts 120°
2026-05-08 20:49 -20.39310 57.60642 1737 ft 148 kts 119°
2026-05-08 20:49 -20.39769 57.61619 1536 ft 148 kts 118°
2026-05-08 20:49 -20.40241 57.62596 1345 ft 149 kts 119°
2026-05-08 20:49 -20.40723 57.63584 1140 ft 153 kts 118°
2026-05-08 20:50 -20.41207 57.64598 899 ft 153 kts 118°
2026-05-08 20:50 -20.41688 57.65587 642 ft 150 kts 118°
2026-05-08 20:50 -20.42161 57.66566 387 ft 148 kts 118°
2026-05-08 20:50 -20.42630 57.67539 216 ft 143 kts 118°
2026-05-08 20:51 -20.43037 57.68384 199 ft 107 kts 116°
2026-05-08 20:51 -20.43296 57.68919 167 ft 70 kts 116°
2026-05-08 20:51 -20.43475 57.69292 143 ft 33 kts 117°
2026-05-08 20:51 -20.43597 57.69349 143 ft 20 kts 200°
2026-05-08 20:52 -20.43641 57.69231 159 ft 20 kts 297°
2026-05-08 20:52 -20.43579 57.69095 170 ft 20 kts 297°
2026-05-08 20:52 -20.43512 57.68959 177 ft 22 kts 297°
2026-05-08 20:52 -20.43442 57.68815 178 ft 22 kts 298°
2026-05-08 20:53 -20.43372 57.68673 181 ft 22 kts 297°
2026-05-08 20:53 -20.43303 57.68529 183 ft 22 kts 297°
2026-05-08 20:53 -20.43234 57.68384 200 ft 22 kts 297°
2026-05-08 20:53 -20.43169 57.68252 204 ft 17 kts 297°
2026-05-08 20:54 -20.43131 57.68133 199 ft 17 kts 260°
2026-05-08 20:54 -20.43209 57.68076 201 ft 13 kts 196°
2026-05-08 20:54 -20.43298 57.68090 197 ft 13 kts 165°
2026-05-08 20:54 -20.43373 57.68072 197 ft 11 kts 242°
2026-05-08 20:55 -20.43383 57.68036 202 ft 2 kts 257°
2026-05-08 20:55 -20.43386 57.68016 203 ft 5 kts 261°
2026-05-08 20:55 -20.43388 57.68007 201 ft 0 kts 262°